N4ASP-13 Weather Reports


time (UTC)temp
C
wind
direction
speed
KPH
gust
KPH
rain 1hr
cm
rain 24hr
cm
rain mn
cm
humidity
%
barometer
mb
20260510234918 23 208 1.6 9.7 0.00 0.00 0.00 43 1016.5
20260510234817 23 194 3.2 9.7 0.00 0.00 0.00 43 1016.4
20260510234715 23 198 3.2 9.7 0.00 0.00 0.00 44 1016.4
20260510234613 23 242 3.2 9.7 0.00 0.00 0.00 43 1016.3
20260510234514 24 182 1.6 6.4 0.00 0.00 0.00 43 1016.3
20260510234410 24 186 1.6 6.4 0.00 0.00 0.00 42 1016.3
20260510234306 24 196 1.6 6.4 0.00 0.00 0.00 42 1016.3
20260510234207 24 198 1.6 6.4 0.00 0.00 0.00 43 1016.4
20260510234106 24 198 3.2 6.4 0.00 0.00 0.00 42 1016.3
20260510234007 24 198 3.2 6.4 0.00 0.00 0.00 41 1016.3
20260510233904 24 198 1.6 6.4 0.00 0.00 0.00 41 1016.3
20260510233801 24 167 1.6 6.4 0.00 0.00 0.00 40 1016.4
20260510233658 24 173 1.6 6.4 0.00 0.00 0.00 40 1016.3
20260510233559 24 219 1.6 4.8 0.00 0.00 0.00 40 1016.3
20260510233457 25 220 1.6 4.8 0.00 0.00 0.00 40 1016.3
20260510233355 25 219 1.6 4.8 0.00 0.00 0.00 40 1016.2
20260510233252 25 219 1.6 4.8 0.00 0.00 0.00 40 1016.2
20260510233153 25 219 1.6 4.8 0.00 0.00 0.00 40 1016.2
20260510233052 25 220 1.6 4.8 0.00 0.00 0.00 41 1016.2
20260510232949 25 220 1.6 4.8 0.00 0.00 0.00 40 1016.2
20260510232849 25 221 1.6 4.8 0.00 0.00 0.00 40 1016.2
20260510232748 25 221 0.0 4.8 0.00 0.00 0.00 40 1016.2
20260510232647 25 221 1.6 4.8 0.00 0.00 0.00 39 1016.1
20260510232544 25 221 1.6 4.8 0.00 0.00 0.00 39 1016.2
20260510232445 25 221 1.6 4.8 0.00 0.00 0.00 40 1016.2
20260510232343 25 221 1.6 4.8 0.00 0.00 0.00 40 1016.2
20260510232240 25 221 1.6 4.8 0.00 0.00 0.00 40 1016.1
20260510232137 25 221 1.6 4.8 0.00 0.00 0.00 39 1016.1
20260510232036 25 232 1.6 4.8 0.00 0.00 0.00 40 1016.1
20260510231934 25 144 1.6 4.8 0.00 0.00 0.00 39 1016.1
20260510231833 25 144 1.6 4.8 0.00 0.00 0.00 39 1016.1
20260510231732 25 144 1.6 4.8 0.00 0.00 0.00 40 1016.1
20260510231632 25 144 1.6 4.8 0.00 0.00 0.00 39 1016.1
20260510231530 25 144 1.6 4.8 0.00 0.00 0.00 39 1016.1
20260510231428 25 144 1.6 4.8 0.00 0.00 0.00 39 1016.0
20260510231326 25 144 1.6 3.2 0.00 0.00 0.00 38 1016.0
20260510231225 25 144 1.6 3.2 0.00 0.00 0.00 39 1016.0
20260510231125 25 144 1.6 3.2 0.00 0.00 0.00 39 1016.1
20260510231024 25 144 1.6 3.2 0.00 0.00 0.00 40 1016.1
20260510230923 25 144 1.6 3.2 0.00 0.00 0.00 39 1016.0
20260510230820 25 144 1.6 3.2 0.00 0.00 0.00 39 1015.9
20260510230712 25 144 1.6 3.2 0.00 0.00 0.00 38 1016.0
20260510230610 25 144 1.6 3.2 0.00 0.00 0.00 39 1016.1
20260510230510 25 144 1.6 4.8 0.00 0.00 0.00 38 1016.0
20260510230411 25 144 1.6 4.8 0.00 0.00 0.00 39 1016.0
20260510230310 25 144 1.6 6.4 0.00 0.00 0.00 38 1016.0
20260510230204 25 142 1.6 8.0 0.00 0.00 0.00 39 1016.0
20260510230105 25 142 1.6 8.0 0.00 0.00 0.00 39 1015.9
20260510230006 25 143 1.6 8.0 0.00 0.00 0.00 38 1015.9
20260510225904 25 143 1.6 8.0 0.00 0.00 0.00 38 1015.9
20260510225805 26 143 1.6 8.0 0.00 0.00 0.00 38 1016.0
20260510225658 26 143 1.6 8.0 0.00 0.00 0.00 38 1016.0
20260510225559 26 143 1.6 8.0 0.00 0.00 0.00 37 1016.0
20260510225458 26 143 1.6 8.0 0.00 0.00 0.00 37 1016.0
20260510225359 26 142 0.0 8.0 0.00 0.00 0.00 37 1015.9
20260510225259 26 146 0.0 8.0 0.00 0.00 0.00 38 1015.9
20260510225156 26 159 0.0 0.0 0.00 0.00 0.00 38 1016.0
20260510225052 26 159 0.0 0.0 0.00 0.00 0.00 37 1015.8
20260510224953 26 163 0.0 0.0 0.00 0.00 0.00 36 1015.9
20260510224850 26 163 0.0 0.0 0.00 0.00 0.00 37 1015.9
20260510224749 26 161 0.0 0.0 0.00 0.00 0.00 37 1016.0
20260510224648 26 161 0.0 0.0 0.00 0.00 0.00 37 1016.0
20260510224547 26 161 0.0 0.0 0.00 0.00 0.00 37 1015.9
20260510224444 26 161 0.0 0.0 0.00 0.00 0.00 37 1015.9
20260510224345 26 161 0.0 0.0 0.00 0.00 0.00 36 1015.9
20260510224242 26 161 0.0 0.0 0.00 0.00 0.00 36 1015.9
20260510224142 26 161 0.0 0.0 0.00 0.00 0.00 36 1016.0
20260510224041 26 161 0.0 0.0 0.00 0.00 0.00 37 1015.9
20260510223938 26 161 0.0 0.0 0.00 0.00 0.00 36 1015.9
20260510223839 26 71 0.0 0.0 0.00 0.00 0.00 37 1016.0
20260510223737 26 71 0.0 0.0 0.00 0.00 0.00 36 1015.9
20260510223634 26 71 0.0 0.0 0.00 0.00 0.00 36 1015.9
20260510223532 26 71 0.0 0.0 0.00 0.00 0.00 36 1015.9
20260510223431 26 26 0.0 0.0 0.00 0.00 0.00 38 1015.9
20260510223327 26 18 0.0 0.0 0.00 0.00 0.00 37 1015.9
20260510223226 26 18 0.0 0.0 0.00 0.00 0.00 36 1015.9
20260510223123 26 17 0.0 0.0 0.00 0.00 0.00 36 1015.9
20260510223020 26 17 0.0 0.0 0.00 0.00 0.00 35 1015.9
20260510222921 26 17 0.0 0.0 0.00 0.00 0.00 36 1015.9
20260510222821 26 10 0.0 0.0 0.00 0.00 0.00 37 1015.9
20260510222720 26 339 0.0 0.0 0.00 0.00 0.00 36 1016.0
20260510222627 26 339 0.0 0.0 0.00 0.00 0.00 35 1015.9
20260510222518 26 340 0.0 0.0 0.00 0.00 0.00 36 1015.9
20260510222417 26 196 0.0 0.0 0.00 0.00 0.00 35 1015.9
20260510222317 26 195 0.0 0.0 0.00 0.00 0.00 36 1015.9
20260510222215 26 269 0.0 0.0 0.00 0.00 0.00 36 1015.9
20260510222106 26 289 0.0 0.0 0.00 0.00 0.00 36 1015.9
20260510222004 26 297 0.0 0.0 0.00 0.00 0.00 36 1015.8
20260510221904 26 339 0.0 0.0 0.00 0.00 0.00 37 1015.8
20260510221805 26 165 0.0 0.0 0.00 0.00 0.00 35 1015.8
20260510221705 26 165 0.0 0.0 0.00 0.00 0.00 36 1015.9
20260510221600 26 163 0.0 0.0 0.00 0.00 0.00 35 1015.9
20260510221500 26 163 0.0 0.0 0.00 0.00 0.00 37 1015.9
20260510221401 26 163 0.0 0.0 0.00 0.00 0.00 36 1015.9
20260510221300 26 163 0.0 0.0 0.00 0.00 0.00 36 1015.9
20260510221159 26 164 0.0 0.0 0.00 0.00 0.00 35 1015.8
20260510221057 26 164 0.0 0.0 0.00 0.00 0.00 37 1015.9
20260510220955 26 164 0.0 0.0 0.00 0.00 0.00 37 1015.9
20260510220854 26 165 0.0 0.0 0.00 0.00 0.00 36 1015.9
20260510220755 26 166 0.0 0.0 0.00 0.00 0.00 34 1015.8
20260510220653 26 166 0.0 0.0 0.00 0.00 0.00 34 1015.8
20260510220547 26 166 0.0 0.0 0.00 0.00 0.00 34 1015.8
20260510220447 26 169 0.0 0.0 0.00 0.00 0.00 35 1015.8
20260510220345 26 190 0.0 0.0 0.00 0.00 0.00 37 1015.8
20260510220245 26 192 0.0 0.0 0.00 0.00 0.00 34 1015.8
20260510220142 26 306 0.0 0.0 0.00 0.00 0.00 35 1015.8
20260510220039 26 303 0.0 0.0 0.00 0.00 0.00 35 1015.9
20260510215938 26 277 0.0 0.0 0.00 0.00 0.00 34 1015.8
20260510215837 26 315 0.0 0.0 0.00 0.00 0.00 35 1015.8
20260510215736 26 300 0.0 0.0 0.00 0.00 0.00 34 1015.8
20260510215637 26 240 0.0 0.0 0.00 0.00 0.00 35 1015.8
20260510215535 26 329 0.0 0.0 0.00 0.00 0.00 36 1015.8
20260510215434 26 85 0.0 0.0 0.00 0.00 0.00 34 1015.8
20260510215332 26 23 0.0 0.0 0.00 0.00 0.00 34 1015.9
20260510215233 26 347 0.0 0.0 0.00 0.00 0.00 34 1015.8
20260510215131 26 347 0.0 0.0 0.00 0.00 0.00 34 1015.8
20260510215022 26 348 0.0 0.0 0.00 0.00 0.00 34 1015.7
20260510214919 26 351 0.0 0.0 0.00 0.00 0.00 35 1015.8
20260510214821 26 337 0.0 0.0 0.00 0.00 0.00 37 1015.8
20260510214720 26 161 0.0 0.0 0.00 0.00 0.00 36 1015.8
20260510214621 26 161 0.0 0.0 0.00 0.00 0.00 34 1015.8
20260510214519 26 161 0.0 0.0 0.00 0.00 0.00 34 1015.8
20260510214418 26 163 0.0 0.0 0.00 0.00 0.00 34 1015.8
20260510214318 26 142 0.0 0.0 0.00 0.00 0.00 34 1015.8
20260510214217 26 148 0.0 0.0 0.00 0.00 0.00 37 1015.8
20260510214115 26 179 0.0 0.0 0.00 0.00 0.00 36 1015.8
20260510214012 26 179 0.0 0.0 0.00 0.00 0.00 34 1015.8
20260510213914 26 179 0.0 0.0 0.00 0.00 0.00 35 1015.8
20260510213810 26 217 0.0 0.0 0.00 0.00 0.00 34 1015.8
20260510213711 26 302 0.0 0.0 0.00 0.00 0.00 34 1015.8
20260510213608 26 299 0.0 0.0 0.00 0.00 0.00 33 1015.8
20260510213501 27 243 0.0 0.0 0.00 0.00 0.00 36 1015.8
20260510213400 27 147 0.0 0.0 0.00 0.00 0.00 34 1015.8
20260510213300 27 202 0.0 0.0 0.00 0.00 0.00 34 1015.8
20260510213200 27 318 0.0 0.0 0.00 0.00 0.00 34 1015.7
20260510213057 27 348 0.0 0.0 0.00 0.00 0.00 33 1015.8
20260510212952 27 355 0.0 0.0 0.00 0.00 0.00 33 1015.8
20260510212850 27 303 0.0 0.0 0.00 0.00 0.00 34 1015.8
20260510212750 27 342 0.0 0.0 0.00 0.00 0.00 35 1015.7
20260510212651 27 188 0.0 0.0 0.00 0.00 0.00 34 1015.8
20260510212550 27 188 0.0 0.0 0.00 0.00 0.00 34 1015.8
20260510212447 27 221 0.0 0.0 0.00 0.00 0.00 33 1015.8
20260510212345 27 289 0.0 0.0 0.00 0.00 0.00 32 1015.8
20260510212245 27 250 0.0 0.0 0.00 0.00 0.00 33 1015.8
20260510212146 27 261 0.0 0.0 0.00 0.00 0.00 34 1015.8
20260510212045 27 256 0.0 0.0 0.00 0.00 0.00 35 1015.9
20260510211938 27 183 0.0 0.0 0.00 0.00 0.00 33 1015.9
20260510211837 27 183 0.0 0.0 0.00 0.00 0.00 33 1016.0
20260510211738 27 184 0.0 0.0 0.00 0.00 0.00 33 1015.9
20260510211637 27 186 0.0 0.0 0.00 0.00 0.00 33 1015.8
20260510211535 27 169 0.0 0.0 0.00 0.00 0.00 34 1015.9
20260510211432 27 169 0.0 0.0 0.00 0.00 0.00 33 1015.9
20260510211332 27 171 0.0 0.0 0.00 0.00 0.00 33 1015.9
20260510211231 27 172 0.0 0.0 0.00 0.00 0.00 31 1015.9
20260510211130 27 169 0.0 0.0 0.00 0.00 0.00 32 1015.9
20260510211028 27 121 0.0 0.0 0.00 0.00 0.00 34 1015.9
20260510210923 27 76 0.0 0.0 0.00 0.00 0.00 33 1015.9
20260510210824 27 109 0.0 0.0 0.00 0.00 0.00 36 1016.0
20260510210723 27 37 0.0 0.0 0.00 0.00 0.00 35 1015.9
20260510210625 27 338 0.0 0.0 0.00 0.00 0.00 35 1015.8
20260510210522 27 42 0.0 0.0 0.00 0.00 0.00 35 1015.9
20260510210414 27 59 0.0 0.0 0.00 0.00 0.00 35 1016.0
20260510210314 27 322 0.0 0.0 0.00 0.00 0.00 33 1015.9
20260510210214 27 135 0.0 0.0 0.00 0.00 0.00 36 1016.0
20260510210114 27 135 0.0 0.0 0.00 0.00 0.00 34 1016.0
20260510210013 27 322 0.0 0.0 0.00 0.00 0.00 37 1015.9
20260510205910 27 323 0.0 0.0 0.00 0.00 0.00 36 1015.9
20260510205811 27 319 0.0 0.0 0.00 0.00 0.00 36 1015.9
20260510205710 27 319 0.0 0.0 0.00 0.00 0.00 35 1016.0
20260510205608 27 302 0.0 0.0 0.00 0.00 0.00 35 1015.9
20260510205507 27 0 0.0 0.0 0.00 0.00 0.00 35 1015.8
20260510205402 27 234 0.0 0.0 0.00 0.00 0.00 34 1015.8
20260510205300 27 320 0.0 0.0 0.00 0.00 0.00 34 1015.9
20260510205202 27 341 0.0 0.0 0.00 0.00 0.00 35 1016.0
20260510205101 27 342 0.0 0.0 0.00 0.00 0.00 33 1015.9
20260510205001 27 296 0.0 0.0 0.00 0.00 0.00 33 1015.9
20260510204852 27 291 0.0 0.0 0.00 0.00 0.00 33 1015.9
20260510204751 27 324 0.0 0.0 0.00 0.00 0.00 32 1015.9
20260510204651 27 142 0.0 0.0 0.00 0.00 0.00 32 1015.9
20260510204550 27 143 0.0 0.0 0.00 0.00 0.00 32 1015.9
20260510204451 27 252 0.0 0.0 0.00 0.00 0.00 33 1015.8
20260510204348 27 252 0.0 0.0 0.00 0.00 0.00 34 1015.9
20260510204249 27 205 0.0 0.0 0.00 0.00 0.00 34 1015.9
20260510204147 27 349 0.0 0.0 0.00 0.00 0.00 35 1015.9
20260510204047 27 170 0.0 0.0 0.00 0.00 0.00 32 1015.9
20260510203945 27 179 0.0 0.0 0.00 0.00 0.00 34 1015.8
20260510203841 27 182 0.0 0.0 0.00 0.00 0.00 32 1015.9
20260510203737 27 163 0.0 0.0 0.00 0.00 0.00 32 1015.8
20260510203639 27 227 0.0 0.0 0.00 0.00 0.00 33 1015.9
20260510203538 27 304 0.0 0.0 0.00 0.00 0.00 33 1015.8
20260510203438 27 159 0.0 0.0 0.00 0.00 0.00 33 1015.9
20260510203333 27 134 0.0 0.0 0.00 0.00 0.00 36 1015.9
20260510203232 27 58 0.0 0.0 0.00 0.00 0.00 32 1015.9
20260510203131 27 58 0.0 0.0 0.00 0.00 0.00 34 1015.9
20260510203031 27 59 0.0 0.0 0.00 0.00 0.00 33 1015.9
20260510202929 27 50 0.0 6.4 0.00 0.00 0.00 35 1015.9
20260510202824 27 196 0.0 6.4 0.00 0.00 0.00 33 1015.9
20260510202723 27 288 0.0 6.4 0.00 0.00 0.00 32 1015.9
20260510202622 27 292 0.0 6.4 0.00 0.00 0.00 30 1016.0
20260510202522 27 297 0.0 6.4 0.00 0.00 0.00 30 1016.0
20260510202422 27 325 0.0 6.4 0.00 0.00 0.00 31 1015.9
20260510202318 27 282 0.0 6.4 0.00 0.00 0.00 31 1015.9
20260510202218 27 288 0.0 6.4 0.00 0.00 0.00 32 1016.0
20260510202118 27 307 0.0 6.4 0.00 0.00 0.00 34 1015.9
20260510202019 27 119 0.0 6.4 0.00 0.00 0.00 31 1016.0
20260510201917 27 122 1.6 6.4 0.00 0.00 0.00 34 1015.9
20260510201809 27 117 1.6 6.4 0.00 0.00 0.00 35 1015.9
20260510201706 27 146 1.6 6.4 0.00 0.00 0.00 34 1015.9
20260510201606 27 146 1.6 6.4 0.00 0.00 0.00 34 1016.0
20260510201506 27 292 1.6 6.4 0.00 0.00 0.00 36 1016.0
20260510201407 27 99 1.6 6.4 0.00 0.00 0.00 34 1016.0
20260510201301 27 184 1.6 6.4 0.00 0.00 0.00 34 1016.0
20260510201200 27 85 1.6 6.4 0.00 0.00 0.00 35 1016.0
20260510201101 27 40 3.2 6.4 0.00 0.00 0.00 33 1016.0
20260510201000 27 61 3.2 9.7 0.00 0.00 0.00 35 1016.1
20260510200901 27 126 3.2 14.5 0.00 0.00 0.00 32 1016.1
20260510200757 27 144 3.2 19.3 0.00 0.00 0.00 32 1016.0
20260510200655 27 140 4.8 19.3 0.00 0.00 0.00 33 1016.1
20260510200555 27 138 4.8 19.3 0.00 0.00 0.00 36 1016.0
20260510200454 27 138 4.8 19.3 0.00 0.00 0.00 33 1016.1
20260510200355 27 138 4.8 19.3 0.00 0.00 0.00 33 1016.1
20260510200247 27 135 4.8 19.3 0.00 0.00 0.00 33 1016.1
20260510200145 27 134 3.2 19.3 0.00 0.00 0.00 32 1016.0
20260510200044 27 165 3.2 19.3 0.00 0.00 0.00 32 1016.2
20260510195944 27 183 1.6 19.3 0.00 0.00 0.00 33 1016.1
20260510195845 27 141 1.6 19.3 0.00 0.00 0.00 34 1016.1
20260510195737 27 102 1.6 11.3 0.00 0.00 0.00 34 1016.1
20260510195639 27 97 0.0 11.3 0.00 0.00 0.00 33 1016.1
20260510195540 27 79 0.0 6.4 0.00 0.00 0.00 34 1016.1
20260510195439 27 81 0.0 6.4 0.00 0.00 0.00 35 1016.1
20260510195339 27 60 1.6 6.4 0.00 0.00 0.00 35 1016.1
20260510195233 27 294 1.6 8.0 0.00 0.00 0.00 32 1016.1
20260510195135 27 255 1.6 8.0 0.00 0.00 0.00 32 1016.2
20260510195034 27 186 1.6 8.0 0.00 0.00 0.00 31 1016.1
20260510194935 27 185 1.6 9.7 0.00 0.00 0.00 31 1016.1
20260510194832 27 183 1.6 9.7 0.00 0.00 0.00 31 1016.1
20260510194724 27 196 1.6 9.7 0.00 0.00 0.00 32 1016.1
20260510194625 27 175 3.2 9.7 0.00 0.00 0.00 31 1016.2
20260510194525 27 187 3.2 12.9 0.00 0.00 0.00 31 1016.1
20260510194424 27 288 3.2 12.9 0.00 0.00 0.00 32 1016.1
20260510194322 27 163 3.2 12.9 0.00 0.00 0.00 32 1016.3
20260510194219 27 183 3.2 12.9 0.00 0.00 0.00 33 1016.2
20260510194116 26 182 3.2 12.9 0.00 0.00 0.00 33 1016.2
20260510194017 26 170 3.2 12.9 0.00 0.00 0.00 33 1016.3
20260510193917 26 331 4.8 12.9 0.00 0.00 0.00 34 1016.3
20260510193816 26 328 4.8 12.9 0.00 0.00 0.00 33 1016.2
20260510193717 26 257 4.8 14.5 0.00 0.00 0.00 33 1016.2
20260510193615 26 120 4.8 14.5 0.00 0.00 0.00 33 1016.2
20260510193514 26 157 4.8 14.5 0.00 0.00 0.00 35 1016.2
20260510193413 26 179 4.8 14.5 0.00 0.00 0.00 33 1016.3
20260510193311 26 180 4.8 14.5 0.00 0.00 0.00 34 1016.3
20260510193200 26 196 4.8 14.5 0.00 0.00 0.00 33 1016.2
20260510193100 26 210 4.8 14.5 0.00 0.00 0.00 33 1016.3
20260510193002 26 134 4.8 14.5 0.00 0.00 0.00 33 1016.3
20260510192901 26 117 4.8 14.5 0.00 0.00 0.00 34 1016.3
20260510192800 26 131 3.2 14.5 0.00 0.00 0.00 34 1016.4
20260510192657 26 130 3.2 9.7 0.00 0.00 0.00 36 1016.3
20260510192555 26 279 4.8 9.7 0.00 0.00 0.00 34 1016.3
20260510192455 26 195 4.8 12.9 0.00 0.00 0.00 35 1016.3
20260510192353 26 285 4.8 12.9 0.00 0.00 0.00 33 1016.4
20260510192254 26 177 6.4 12.9 0.00 0.00 0.00 36 1016.4
20260510192148 26 134 6.4 12.9 0.00 0.00 0.00 34 1016.4
20260510192048 26 134 6.4 12.9 0.00 0.00 0.00 36 1016.4
20260510191949 26 142 6.4 12.9 0.00 0.00 0.00 35 1016.4
20260510191850 26 169 4.8 12.9 0.00 0.00 0.00 34 1016.4
20260510191749 26 148 4.8 12.9 0.00 0.00 0.00 34 1016.4
20260510191639 26 132 4.8 12.9 0.00 0.00 0.00 33 1016.4
20260510191539 26 135 4.8 12.9 0.00 0.00 0.00 33 1016.4
20260510191440 26 158 4.8 12.9 0.00 0.00 0.00 35 1016.5
20260510191339 26 125 4.8 11.3 0.00 0.00 0.00 33 1016.4
20260510191239 26 167 4.8 11.3 0.00 0.00 0.00 34 1016.5
20260510191136 26 166 4.8 11.3 0.00 0.00 0.00 34 1016.5
20260510191036 26 38 4.8 11.3 0.00 0.00 0.00 33 1016.4
20260510190935 26 38 4.8 11.3 0.00 0.00 0.00 33 1016.5
20260510190835 26 5 4.8 11.3 0.00 0.00 0.00 32 1016.5
20260510190732 26 317 4.8 11.3 0.00 0.00 0.00 32 1016.4
20260510190627 26 273 3.2 11.3 0.00 0.00 0.00 34 1016.5
20260510190525 26 275 3.2 11.3 0.00 0.00 0.00 32 1016.5
20260510190427 26 221 3.2 11.3 0.00 0.00 0.00 32 1016.4
20260510190327 26 0 3.2 9.7 0.00 0.00 0.00 34 1016.5
20260510190226 26 187 3.2 9.7 0.00 0.00 0.00 35 1016.6
20260510190119 26 285 1.6 9.7 0.00 0.00 0.00 37 1016.4
20260510190016 26 355 1.6 9.7 0.00 0.00 0.00 35 1016.5
20260510185916 26 317 1.6 9.7 0.00 0.00 0.00 34 1016.5
20260510185816 26 209 1.6 9.7 0.00 0.00 0.00 33 1016.5
20260510185717 26 162 0.0 9.7 0.00 0.00 0.00 34 1016.5
20260510185617 26 161 0.0 11.3 0.00 0.00 0.00 35 1016.5
20260510185513 26 150 0.0 11.3 0.00 0.00 0.00 33 1016.5
20260510185414 26 150 1.6 11.3 0.00 0.00 0.00 34 1016.5
20260510185313 26 86 1.6 11.3 0.00 0.00 0.00 34 1016.6
20260510185211 26 54 1.6 11.3 0.00 0.00 0.00 35 1016.6
20260510185106 26 124 1.6 11.3 0.00 0.00 0.00 33 1016.6
20260510185008 26 190 1.6 11.3 0.00 0.00 0.00 34 1016.6
20260510184905 26 190 1.6 11.3 0.00 0.00 0.00 35 1016.4
20260510184807 26 193 1.6 11.3 0.00 0.00 0.00 32 1016.6
20260510184704 26 147 1.6 9.7 0.00 0.00 0.00 33 1016.5
20260510184557 26 180 1.6 11.3 0.00 0.00 0.00 33 1016.5
20260510184456 26 291 3.2 11.3 0.00 0.00 0.00 32 1016.5
20260510184355 26 296 3.2 11.3 0.00 0.00 0.00 32 1016.6
20260510184255 26 271 3.2 11.3 0.00 0.00 0.00 35 1016.5
20260510184154 26 240 3.2 11.3 0.00 0.00 0.00 33 1016.4
20260510184048 26 201 3.2 11.3 0.00 0.00 0.00 36 1016.5
20260510183948 26 169 3.2 11.3 0.00 0.00 0.00 35 1016.5
20260510183847 26 141 4.8 11.3 0.00 0.00 0.00 33 1016.5
20260510183749 26 141 4.8 11.3 0.00 0.00 0.00 34 1016.5
20260510183649 26 152 3.2 11.3 0.00 0.00 0.00 31 1016.6
20260510183542 26 130 3.2 9.7 0.00 0.00 0.00 31 1016.6
20260510183441 26 193 3.2 9.7 0.00 0.00 0.00 31 1016.6
20260510183343 26 136 3.2 8.0 0.00 0.00 0.00 32 1016.7
20260510183241 26 252 1.6 8.0 0.00 0.00 0.00 31 1016.7
20260510183143 26 242 1.6 8.0 0.00 0.00 0.00 33 1016.7
20260510183035 26 273 1.6 8.0 0.00 0.00 0.00 34 1016.6
20260510182933 26 319 1.6 8.0 0.00 0.00 0.00 33 1016.6
20260510182832 26 280 0.0 8.0 0.00 0.00 0.00 33 1016.6
20260510182733 26 305 0.0 8.0 0.00 0.00 0.00 34 1016.6
20260510182633 26 184 0.0 1.6 0.00 0.00 0.00 33 1016.6
20260510182527 26 175 0.0 0.0 0.00 0.00 0.00 33 1016.6
20260510182427 26 175 0.0 0.0 0.00 0.00 0.00 34 1016.6
20260510182327 26 111 0.0 0.0 0.00 0.00 0.00 33 1016.7
20260510182227 26 302 0.0 0.0 0.00 0.00 0.00 32 1016.6
20260510182127 26 213 0.0 0.0 0.00 0.00 0.00 35 1016.7
20260510182027 26 140 0.0 0.0 0.00 0.00 0.00 34 1016.7
20260510181925 26 164 0.0 0.0 0.00 0.00 0.00 35 1016.7
20260510181824 25 250 0.0 0.0 0.00 0.00 0.00 36 1016.6
20260510181723 25 350 0.0 0.0 0.00 0.00 0.00 35 1016.5
20260510181620 25 336 0.0 0.0 0.00 0.00 0.00 34 1016.5
20260510181514 25 279 0.0 0.0 0.00 0.00 0.00 34 1016.7
20260510181413 25 180 0.0 0.0 0.00 0.00 0.00 33 1016.6
20260510181313 25 179 0.0 0.0 0.00 0.00 0.00 32 1016.7
20260510181213 25 179 0.0 0.0 0.00 0.00 0.00 36 1016.7
20260510181111 25 10 0.0 0.0 0.00 0.00 0.00 36 1016.7
20260510181005 25 16 0.0 3.2 0.00 0.00 0.00 36 1016.7
20260510180905 25 313 0.0 4.8 0.00 0.00 0.00 35 1016.6
20260510180805 25 348 1.6 11.3 0.00 0.00 0.00 35 1016.6
20260510180704 25 344 3.2 14.5 0.00 0.00 0.00 35 1016.6
20260510180604 25 326 3.2 14.5 0.00 0.00 0.00 35 1016.7
20260510180458 25 284 3.2 14.5 0.00 0.00 0.00 36 1016.7
20260510180357 25 47 3.2 14.5 0.00 0.00 0.00 35 1016.7
20260510180259 25 302 3.2 14.5 0.00 0.00 0.00 35 1016.7
20260510180157 25 342 4.8 14.5 0.00 0.00 0.00 36 1016.7
20260510180059 25 242 4.8 14.5 0.00 0.00 0.00 35 1016.7
20260510175947 25 91 4.8 14.5 0.00 0.00 0.00 37 1016.7
20260510175848 25 171 4.8 14.5 0.00 0.00 0.00 35 1016.6
20260510175748 25 135 4.8 11.3 0.00 0.00 0.00 34 1016.6
20260510175649 25 153 3.2 11.3 0.00 0.00 0.00 37 1016.7
20260510175549 25 147 3.2 9.7 0.00 0.00 0.00 36 1016.7
20260510175442 25 186 3.2 9.7 0.00 0.00 0.00 35 1016.7
20260510175341 25 191 3.2 9.7 0.00 0.00 0.00 32 1016.9
20260510175243 25 277 3.2 9.7 0.00 0.00 0.00 33 1016.7
20260510175143 25 336 3.2 9.7 0.00 0.00 0.00 33 1016.9
20260510175043 25 261 3.2 9.7 0.00 0.00 0.00 34 1016.9
20260510174937 25 319 3.2 6.4 0.00 0.00 0.00 35 1016.9
20260510174836 25 355 3.2 6.4 0.00 0.00 0.00 35 1016.9
20260510174737 25 152 3.2 6.4 0.00 0.00 0.00 35 1016.9
20260510174635 25 184 3.2 6.4 0.00 0.00 0.00 34 1016.9
20260510174536 25 192 3.2 6.4 0.00 0.00 0.00 34 1017.0
20260510174431 25 150 3.2 6.4 0.00 0.00 0.00 35 1017.0
20260510174330 25 157 3.2 9.7 0.00 0.00 0.00 37 1017.0
20260510174230 25 238 3.2 9.7 0.00 0.00 0.00 36 1016.9
20260510174129 25 27 3.2 9.7 0.00 0.00 0.00 37 1017.0
20260510174027 25 250 3.2 11.3 0.00 0.00 0.00 37 1017.0
20260510173922 25 255 3.2 11.3 0.00 0.00 0.00 38 1017.0
20260510173822 25 22 3.2 11.3 0.00 0.00 0.00 36 1017.0
20260510173722 25 300 3.2 11.3 0.00 0.00 0.00 35 1017.0
20260510173622 25 355 3.2 11.3 0.00 0.00 0.00 35 1017.0
20260510173521 25 335 3.2 11.3 0.00 0.00 0.00 37 1017.0
20260510173415 25 315 3.2 11.3 0.00 0.00 0.00 36 1017.1
20260510173313 25 312 3.2 11.3 0.00 0.00 0.00 35 1017.0
20260510173215 25 296 3.2 11.3 0.00 0.00 0.00 34 1017.1
20260510173115 25 310 3.2 11.3 0.00 0.00 0.00 36 1017.0
20260510173014 25 117 3.2 11.3 0.00 0.00 0.00 36 1017.0
20260510172905 25 123 3.2 11.3 0.00 0.00 0.00 37 1017.0
20260510172804 25 121 3.2 11.3 0.00 0.00 0.00 36 1017.1
20260510172705 25 119 3.2 11.3 0.00 0.00 0.00 34 1017.2
20260510172604 25 308 3.2 11.3 0.00 0.00 0.00 33 1017.2
20260510172506 25 277 3.2 11.3 0.00 0.00 0.00 37 1017.2
20260510172358 25 160 3.2 11.3 0.00 0.00 0.00 36 1017.2
20260510172258 25 187 3.2 11.3 0.00 0.00 0.00 35 1017.2
20260510172159 25 149 3.2 11.3 0.00 0.00 0.00 35 1017.3
20260510172058 24 121 3.2 11.3 0.00 0.00 0.00 34 1017.3
20260510171959 24 169 4.8 11.3 0.00 0.00 0.00 34 1017.3
20260510171856 24 168 4.8 11.3 0.00 0.00 0.00 35 1017.3
20260510171756 24 170 4.8 12.9 0.00 0.00 0.00 34 1017.4
20260510171656 24 286 4.8 12.9 0.00 0.00 0.00 32 1017.3
20260510171554 24 273 6.4 12.9 0.00 0.00 0.00 34 1017.4
20260510171453 24 273 4.8 12.9 0.00 0.00 0.00 32 1017.3
20260510171349 24 255 6.4 12.9 0.00 0.00 0.00 32 1017.4
20260510171248 24 286 6.4 12.9 0.00 0.00 0.00 33 1017.4
20260510171147 24 338 6.4 12.9 0.00 0.00 0.00 34 1017.4
20260510171048 24 5 6.4 12.9 0.00 0.00 0.00 34 1017.4
20260510170949 24 300 4.8 12.9 0.00 0.00 0.00 34 1017.4
20260510170847 24 355 6.4 12.9 0.00 0.00 0.00 32 1017.5
20260510170748 24 284 4.8 14.5 0.00 0.00 0.00 35 1017.6
20260510170646 24 24 4.8 14.5 0.00 0.00 0.00 35 1017.4
20260510170545 24 291 4.8 14.5 0.00 0.00 0.00 34 1017.4
20260510170445 24 267 4.8 14.5 0.00 0.00 0.00 32 1017.4
20260510170344 24 290 4.8 14.5 0.00 0.00 0.00 33 1017.3
20260510170244 24 285 4.8 14.5 0.00 0.00 0.00 34 1017.4
20260510170143 24 246 4.8 14.5 0.00 0.00 0.00 33 1017.4
20260510170044 24 240 4.8 14.5 0.00 0.00 0.00 35 1017.4
20260510165943 24 138 4.8 14.5 0.00 0.00 0.00 34 1017.4
20260510165844 24 115 3.2 14.5 0.00 0.00 0.00 34 1017.4
20260510165745 24 223 3.2 11.3 0.00 0.00 0.00 33 1017.4
20260510165639 24 226 3.2 11.3 0.00 0.00 0.00 32 1017.5
20260510165537 24 269 3.2 11.3 0.00 0.00 0.00 33 1017.4
20260510165439 24 282 3.2 9.7 0.00 0.00 0.00 33 1017.4
20260510165338 24 151 3.2 9.7 0.00 0.00 0.00 36 1017.5
20260510165238 24 97 3.2 9.7 0.00 0.00 0.00 34 1017.4
20260510165135 24 90 4.8 12.9 0.00 0.00 0.00 35 1017.5
20260510165032 24 87 4.8 14.5 0.00 0.00 0.00 33 1017.4
20260510164932 24 86 4.8 14.5 0.00 0.00 0.00 34 1017.4
20260510164832 24 338 4.8 14.5 0.00 0.00 0.00 31 1017.4
20260510164733 24 194 4.8 14.5 0.00 0.00 0.00 29 1017.5
20260510164625 24 304 4.8 14.5 0.00 0.00 0.00 27 1017.4
20260510164527 24 317 4.8 14.5 0.00 0.00 0.00 27 1017.4
20260510164427 24 295 4.8 14.5 0.00 0.00 0.00 28 1017.4
20260510164325 24 321 4.8 14.5 0.00 0.00 0.00 30 1017.4
20260510164223 24 324 4.8 14.5 0.00 0.00 0.00 29 1017.5
20260510164123 24 238 4.8 11.3 0.00 0.00 0.00 31 1017.4
20260510164024 24 332 4.8 9.7 0.00 0.00 0.00 34 1017.4
20260510163923 24 324 3.2 8.0 0.00 0.00 0.00 36 1017.3
20260510163823 24 84 4.8 8.0 0.00 0.00 0.00 36 1017.4
20260510163721 24 53 4.8 8.0 0.00 0.00 0.00 38 1017.4
20260510163623 24 341 4.8 8.0 0.00 0.00 0.00 38 1017.3
20260510163419 24 344 4.8 11.3 0.00 0.00 0.00 38 1017.4
20260510163318 24 311 4.8 11.3 0.00 0.00 0.00 39 1017.4
20260510163217 24 340 4.8 11.3 0.00 0.00 0.00 37 1017.4
20260510163117 24 342 3.2 11.3 0.00 0.00 0.00 37 1017.4
20260510163016 24 290 3.2 11.3 0.00 0.00 0.00 37 1017.4
20260510162917 24 281 3.2 11.3 0.00 0.00 0.00 36 1017.3
20260510162814 24 297 3.2 11.3 0.00 0.00 0.00 36 1017.5
20260510162713 24 328 3.2 11.3 0.00 0.00 0.00 38 1017.4
20260510162615 24 190 3.2 11.3 0.00 0.00 0.00 41 1017.4
20260510162520 24 175 3.2 11.3 0.00 0.00 0.00 41 1017.5
20260510162407 23 184 3.2 9.7 0.00 0.00 0.00 41 1017.5
20260510162308 23 188 3.2 9.7 0.00 0.00 0.00 42 1017.5
20260510162209 23 195 3.2 9.7 0.00 0.00 0.00 41 1017.5
20260510162109 23 202 3.2 9.7 0.00 0.00 0.00 40 1017.7
20260510162008 23 310 3.2 9.7 0.00 0.00 0.00 43 1017.6
20260510161908 23 182 3.2 6.4 0.00 0.00 0.00 43 1017.6
20260510161806 23 290 3.2 12.9 0.00 0.00 0.00 43 1017.6
20260510161706 23 287 3.2 12.9 0.00 0.00 0.00 42 1017.6
20260510161606 23 278 3.2 12.9 0.00 0.00 0.00 42 1017.6
20260510161507 23 124 4.8 12.9 0.00 0.00 0.00 44 1017.6
20260510161405 23 93 4.8 12.9 0.00 0.00 0.00 44 1017.7
20260510161305 23 328 4.8 12.9 0.00 0.00 0.00 43 1017.7
20260510161206 23 329 4.8 12.9 0.00 0.00 0.00 43 1017.7
20260510161106 23 277 4.8 12.9 0.00 0.00 0.00 43 1017.7
20260510161005 23 326 4.8 12.9 0.00 0.00 0.00 42 1017.7
20260510160906 23 318 4.8 12.9 0.00 0.00 0.00 41 1017.7
20260510160807 23 328 6.4 12.9 0.00 0.00 0.00 41 1017.7
20260510160704 23 322 6.4 12.9 0.00 0.00 0.00 41 1017.7
20260510160604 23 308 6.4 12.9 0.00 0.00 0.00 41 1017.7
20260510160503 23 328 4.8 11.3 0.00 0.00 0.00 42 1017.7
20260510160405 23 340 4.8 12.9 0.00 0.00 0.00 44 1017.7
20260510160305 23 272 4.8 12.9 0.00 0.00 0.00 46 1017.7
20260510160203 23 312 4.8 12.9 0.00 0.00 0.00 44 1017.7
20260510160104 23 355 4.8 12.9 0.00 0.00 0.00 45 1017.7
20260510160005 23 307 4.8 12.9 0.00 0.00 0.00 46 1017.8
20260510155904 23 300 4.8 12.9 0.00 0.00 0.00 46 1017.7
20260510155805 23 331 4.8 12.9 0.00 0.00 0.00 43 1017.7
20260510155704 23 294 4.8 12.9 0.00 0.00 0.00 46 1017.7
20260510155604 23 328 3.2 12.9 0.00 0.00 0.00 48 1017.7
20260510155500 23 325 3.2 12.9 0.00 0.00 0.00 46 1017.7
20260510155359 23 282 3.2 8.0 0.00 0.00 0.00 45 1017.7
20260510155300 22 348 3.2 8.0 0.00 0.00 0.00 48 1017.7
20260510155201 22 251 3.2 8.0 0.00 0.00 0.00 48 1017.6
20260510155059 22 284 4.8 8.0 0.00 0.00 0.00 50 1017.6
20260510154952 22 350 3.2 9.7 0.00 0.00 0.00 50 1017.6
20260510154853 22 334 4.8 9.7 0.00 0.00 0.00 51 1017.6
20260510154752 22 321 4.8 9.7 0.00 0.00 0.00 48 1017.7
20260510154652 22 286 4.8 9.7 0.00 0.00 0.00 48 1017.6
20260510154552 22 288 4.8 9.7 0.00 0.00 0.00 51 1017.7
20260510154447 22 288 4.8 9.7 0.00 0.00 0.00 49 1017.7
20260510154349 22 5 4.8 9.7 0.00 0.00 0.00 50 1017.7
20260510154247 22 13 4.8 9.7 0.00 0.00 0.00 50 1017.7
20260510154149 22 12 4.8 9.7 0.00 0.00 0.00 50 1017.7
20260510154047 22 344 4.8 11.3 0.00 0.00 0.00 49 1017.8
20260510153947 22 329 6.4 12.9 0.00 0.00 0.00 48 1017.7
20260510153849 22 333 6.4 12.9 0.00 0.00 0.00 48 1017.7
20260510153747 22 322 6.4 12.9 0.00 0.00 0.00 48 1017.8
20260510153648 22 325 6.4 12.9 0.00 0.00 0.00 50 1017.7
20260510153549 21 25 6.4 12.9 0.00 0.00 0.00 49 1017.7
20260510153448 21 21 6.4 12.9 0.00 0.00 0.00 49 1017.6
20260510153348 21 355 6.4 14.5 0.00 0.00 0.00 49 1017.7
20260510153248 21 345 6.4 14.5 0.00 0.00 0.00 49 1017.7
20260510153148 21 5 6.4 14.5 0.00 0.00 0.00 51 1017.7
20260510153049 21 329 6.4 14.5 0.00 0.00 0.00 50 1017.7
20260510152948 21 331 6.4 14.5 0.00 0.00 0.00 49 1017.7
20260510152847 21 342 6.4 14.5 0.00 0.00 0.00 49 1017.8
20260510152748 21 9 6.4 14.5 0.00 0.00 0.00 50 1017.8
20260510152648 21 345 6.4 14.5 0.00 0.00 0.00 50 1017.8
20260510152548 21 346 8.0 14.5 0.00 0.00 0.00 50 1017.8
20260510152447 21 5 8.0 16.1 0.00 0.00 0.00 52 1017.8
20260510152348 21 5 8.0 16.1 0.00 0.00 0.00 51 1017.7
20260510152247 21 13 8.0 16.1 0.00 0.00 0.00 51 1017.8
20260510152148 21 38 9.7 16.1 0.00 0.00 0.00 52 1017.8
20260510152047 21 327 9.7 16.1 0.00 0.00 0.00 49 1017.7
20260510151949 21 18 9.7 16.1 0.00 0.00 0.00 52 1017.7
20260510151845 21 333 9.7 16.1 0.00 0.00 0.00 49 1017.8
20260510151746 21 325 9.7 16.1 0.00 0.00 0.00 50 1017.7
20260510151645 21 340 9.7 16.1 0.00 0.00 0.00 50 1017.8
20260510151545 21 336 9.7 16.1 0.00 0.00 0.00 51 1017.8
20260510151447 21 338 9.7 16.1 0.00 0.00 0.00 51 1017.8
20260510151346 21 340 9.7 16.1 0.00 0.00 0.00 49 1017.8
20260510151247 21 328 9.7 16.1 0.00 0.00 0.00 50 1017.7
20260510151137 21 0 9.7 16.1 0.00 0.00 0.00 49 1017.7
20260510151037 21 310 8.0 16.1 0.00 0.00 0.00 50 1017.7
20260510150939 21 319 8.0 16.1 0.00 0.00 0.00 50 1017.7
20260510150836 21 337 8.0 16.1 0.00 0.00 0.00 49 1017.8
20260510150738 21 345 8.0 16.1 0.00 0.00 0.00 48 1017.8
20260510150637 21 329 8.0 16.1 0.00 0.00 0.00 50 1017.8
20260510150537 21 316 6.4 14.5 0.00 0.00 0.00 52 1017.8
20260510150436 21 332 6.4 14.5 0.00 0.00 0.00 52 1017.8
20260510150338 21 333 6.4 14.5 0.00 0.00 0.00 51 1017.7
20260510150238 21 336 6.4 14.5 0.00 0.00 0.00 52 1017.8
20260510150137 21 347 6.4 14.5 0.00 0.00 0.00 50 1017.8
20260510150037 21 327 6.4 14.5 0.00 0.00 0.00 51 1017.8
20260510145937 21 338 6.4 14.5 0.00 0.00 0.00 52 1017.8
20260510145838 21 27 6.4 14.5 0.00 0.00 0.00 50 1017.8
20260510145738 21 355 6.4 14.5 0.00 0.00 0.00 51 1017.8
20260510145637 21 0 6.4 14.5 0.00 0.00 0.00 50 1017.7
20260510145537 21 305 6.4 14.5 0.00 0.00 0.00 51 1017.8
20260510145437 21 307 6.4 14.5 0.00 0.00 0.00 52 1017.7
20260510145337 21 282 8.0 14.5 0.00 0.00 0.00 53 1017.7
20260510145238 21 344 8.0 14.5 0.00 0.00 0.00 52 1017.7
20260510145136 21 311 8.0 14.5 0.00 0.00 0.00 51 1017.7
20260510145038 21 292 8.0 16.1 0.00 0.00 0.00 50 1017.8
20260510144936 21 355 8.0 16.1 0.00 0.00 0.00 51 1017.8
20260510144837 21 0 8.0 16.1 0.00 0.00 0.00 51 1017.7
20260510144738 21 24 8.0 16.1 0.00 0.00 0.00 53 1017.7
20260510144538 21 316 9.7 16.1 0.00 0.00 0.00 50 1017.7
20260510144436 20 331 8.0 16.1 0.00 0.00 0.00 53 1017.9
20260510144337 20 336 8.0 16.1 0.00 0.00 0.00 52 1017.8
20260510144238 20 344 8.0 16.1 0.00 0.00 0.00 52 1017.7
20260510144137 20 316 8.0 16.1 0.00 0.00 0.00 49 1017.6
20260510144037 20 323 8.0 14.5 0.00 0.00 0.00 51 1017.7
20260510143938 20 330 8.0 14.5 0.00 0.00 0.00 50 1017.6
20260510143833 20 301 8.0 14.5 0.00 0.00 0.00 51 1017.8
20260510143734 20 347 8.0 16.1 0.00 0.00 0.00 50 1017.7
20260510143633 20 277 6.4 16.1 0.00 0.00 0.00 51 1017.7
20260510143533 20 0 6.4 16.1 0.00 0.00 0.00 51 1017.7
20260510143433 20 348 8.0 16.1 0.00 0.00 0.00 51 1017.7
20260510143332 20 11 8.0 16.1 0.00 0.00 0.00 51 1017.7
20260510143234 20 0 8.0 16.1 0.00 0.00 0.00 51 1017.7
20260510143134 20 333 8.0 16.1 0.00 0.00 0.00 51 1017.7
20260510143033 20 5 8.0 17.7 0.00 0.00 0.00 50 1017.7
20260510142933 20 292 8.0 17.7 0.00 0.00 0.00 51 1017.7
20260510142834 20 325 8.0 17.7 0.00 0.00 0.00 50 1017.5
20260510142734 20 321 8.0 17.7 0.00 0.00 0.00 49 1017.7
20260510142633 20 308 8.0 17.7 0.00 0.00 0.00 51 1017.7
20260510142534 20 311 8.0 17.7 0.00 0.00 0.00 49 1017.7
20260510142435 20 263 8.0 17.7 0.00 0.00 0.00 53 1017.7
20260510142333 20 345 8.0 17.7 0.00 0.00 0.00 52 1017.7
20260510142233 20 327 8.0 17.7 0.00 0.00 0.00 50 1017.7
20260510142133 20 330 6.4 17.7 0.00 0.00 0.00 52 1017.6
20260510142032 20 355 6.4 12.9 0.00 0.00 0.00 51 1017.6
20260510141933 20 301 6.4 12.9 0.00 0.00 0.00 50 1017.6
20260510141833 20 0 6.4 12.9 0.00 0.00 0.00 51 1017.6
20260510141734 20 355 6.4 12.9 0.00 0.00 0.00 51 1017.6
20260510141633 20 331 6.4 12.9 0.00 0.00 0.00 50 1017.6
20260510141534 20 310 4.8 12.9 0.00 0.00 0.00 52 1017.6
20260510141433 20 318 4.8 12.9 0.00 0.00 0.00 50 1017.7
20260510141334 20 300 4.8 12.9 0.00 0.00 0.00 51 1017.6
20260510141233 20 325 4.8 12.9 0.00 0.00 0.00 52 1017.7
20260510141132 20 319 4.8 9.7 0.00 0.00 0.00 51 1017.7
20260510141032 20 313 4.8 9.7 0.00 0.00 0.00 50 1017.6
20260510140934 20 318 4.8 9.7 0.00 0.00 0.00 53 1017.7
20260510140834 20 0 4.8 9.7 0.00 0.00 0.00 53 1017.6
20260510140733 20 338 4.8 9.7 0.00 0.00 0.00 52 1017.7
20260510140634 20 314 4.8 9.7 0.00 0.00 0.00 52 1017.7
20260510140529 20 336 6.4 11.3 0.00 0.00 0.00 52 1017.6
20260510140430 20 346 6.4 11.3 0.00 0.00 0.00 51 1017.6
20260510140330 20 347 6.4 11.3 0.00 0.00 0.00 52 1017.6
20260510140230 20 340 6.4 11.3 0.00 0.00 0.00 53 1017.6
20260510140128 20 340 6.4 11.3 0.00 0.00 0.00 53 1017.7
20260510140029 20 5 6.4 11.3 0.00 0.00 0.00 56 1017.7
20260510135928 20 346 6.4 11.3 0.00 0.00 0.00 52 1017.7
20260510135829 19 0 6.4 11.3 0.00 0.00 0.00 52 1017.6
20260510135730 19 322 6.4 11.3 0.00 0.00 0.00 54 1017.7
20260510135629 19 330 6.4 12.9 0.00 0.00 0.00 51 1017.7
20260510135531 19 300 6.4 12.9 0.00 0.00 0.00 53 1017.7
20260510135429 19 328 6.4 12.9 0.00 0.00 0.00 53 1017.7
20260510135328 19 285 6.4 12.9 0.00 0.00 0.00 52 1017.7
20260510135230 19 10 6.4 12.9 0.00 0.00 0.00 54 1017.7
20260510135130 19 355 6.4 12.9 0.00 0.00 0.00 55 1017.7
20260510135030 19 5 6.4 12.9 0.00 0.00 0.00 54 1017.7
20260510134928 19 337 6.4 12.9 0.00 0.00 0.00 53 1017.7
20260510134829 19 316 6.4 12.9 0.00 0.00 0.00 53 1017.7
20260510134730 19 298 6.4 12.9 0.00 0.00 0.00 53 1017.6
20260510134629 19 323 6.4 12.9 0.00 0.00 0.00 51 1017.7
20260510134530 19 333 6.4 12.9 0.00 0.00 0.00 52 1017.7
20260510134429 19 338 6.4 11.3 0.00 0.00 0.00 52 1017.6
20260510134328 19 324 6.4 11.3 0.00 0.00 0.00 55 1017.7
20260510134229 19 342 6.4 9.7 0.00 0.00 0.00 54 1017.7
20260510134129 19 333 6.4 9.7 0.00 0.00 0.00 53 1017.7
20260510134030 19 298 6.4 9.7 0.00 0.00 0.00 57 1017.7
20260510133930 19 25 6.4 11.3 0.00 0.00 0.00 56 1017.6
20260510133830 19 5 6.4 11.3 0.00 0.00 0.00 54 1017.6
20260510133728 19 355 6.4 11.3 0.00 0.00 0.00 56 1017.6
20260510133629 19 349 6.4 11.3 0.00 0.00 0.00 60 1017.5
20260510133530 19 11 6.4 11.3 0.00 0.00 0.00 59 1017.5
20260510133429 19 338 4.8 11.3 0.00 0.00 0.00 58 1017.6
20260510133330 19 21 4.8 11.3 0.00 0.00 0.00 59 1017.5
20260510133226 19 351 6.4 11.3 0.00 0.00 0.00 56 1017.5
20260510133125 19 5 4.8 11.3 0.00 0.00 0.00 55 1017.6
20260510133026 19 20 4.8 11.3 0.00 0.00 0.00 56 1017.5
20260510132926 19 350 4.8 8.0 0.00 0.00 0.00 60 1017.5
20260510132824 19 13 4.8 8.0 0.00 0.00 0.00 60 1017.5
20260510132726 19 13 4.8 8.0 0.00 0.00 0.00 60 1017.5
20260510132524 18 13 6.4 12.9 0.00 0.00 0.00 61 1017.5
20260510132425 18 13 6.4 12.9 0.00 0.00 0.00 61 1017.5
20260510132325 18 13 6.4 12.9 0.00 0.00 0.00 62 1017.5
20260510132224 18 5 6.4 12.9 0.00 0.00 0.00 61 1017.5
20260510132125 18 23 6.4 12.9 0.00 0.00 0.00 59 1017.5
20260510132022 18 13 6.4 12.9 0.00 0.00 0.00 61 1017.5
20260510131922 18 346 6.4 12.9 0.00 0.00 0.00 61 1017.5
20260510131820 18 346 8.0 12.9 0.00 0.00 0.00 57 1017.6
20260510131720 18 350 8.0 12.9 0.00 0.00 0.00 57 1017.5
20260510131619 18 304 8.0 12.9 0.00 0.00 0.00 58 1017.4
20260510131518 18 292 8.0 12.9 0.00 0.00 0.00 57 1017.5
20260510131419 18 307 8.0 12.9 0.00 0.00 0.00 59 1017.5
20260510131318 18 298 8.0 12.9 0.00 0.00 0.00 57 1017.5
20260510131216 18 318 6.4 12.9 0.00 0.00 0.00 59 1017.4
20260510131115 18 318 6.4 12.9 0.00 0.00 0.00 58 1017.5
20260510131014 18 328 6.4 12.9 0.00 0.00 0.00 57 1017.4
20260510130916 18 355 6.4 12.9 0.00 0.00 0.00 58 1017.4
20260510130816 18 319 6.4 12.9 0.00 0.00 0.00 55 1017.4
20260510130713 18 330 6.4 9.7 0.00 0.00 0.00 56 1017.4
20260510130612 18 326 6.4 9.7 0.00 0.00 0.00 57 1017.3
20260510130514 18 321 6.4 9.7 0.00 0.00 0.00 58 1017.3
20260510130412 18 331 6.4 9.7 0.00 0.00 0.00 59 1017.4
20260510130305 18 351 4.8 8.0 0.00 0.00 0.00 59 1017.3
20260510130205 18 348 4.8 8.0 0.00 0.00 0.00 60 1017.4
20260510130106 18 344 4.8 8.0 0.00 0.00 0.00 62 1017.3
20260510130006 18 327 4.8 8.0 0.00 0.00 0.00 61 1017.2
20260510125906 18 327 4.8 8.0 0.00 0.00 0.00 60 1017.2
20260510125759 18 5 4.8 8.0 0.00 0.00 0.00 62 1017.2
20260510125700 18 5 4.8 8.0 0.00 0.00 0.00 62 1017.2
20260510125600 18 343 4.8 6.4 0.00 0.00 0.00 62 1017.3
20260510125459 18 342 3.2 6.4 0.00 0.00 0.00 64 1017.1
20260510125400 18 320 3.2 6.4 0.00 0.00 0.00 64 1017.1
20260510125258 18 298 3.2 6.4 0.00 0.00 0.00 65 1017.1
20260510125157 18 324 3.2 6.4 0.00 0.00 0.00 64 1017.1
20260510125057 18 311 3.2 6.4 0.00 0.00 0.00 64 1017.1
20260510124958 18 319 3.2 6.4 0.00 0.00 0.00 65 1017.0
20260510124857 18 312 3.2 6.4 0.00 0.00 0.00 64 1017.0
20260510124758 17 291 3.2 6.4 0.00 0.00 0.00 65 1017.2
20260510124658 17 293 3.2 6.4 0.00 0.00 0.00 64 1017.1
20260510124557 17 290 3.2 6.4 0.00 0.00 0.00 65 1017.1
20260510124457 17 304 3.2 6.4 0.00 0.00 0.00 65 1017.1
20260510124357 17 309 3.2 6.4 0.00 0.00 0.00 65 1017.1
20260510124255 17 315 3.2 6.4 0.00 0.00 0.00 67 1017.1
20260510124154 17 298 3.2 6.4 0.00 0.00 0.00 67 1017.1
20260510124052 17 326 3.2 6.4 0.00 0.00 0.00 68 1017.1
20260510123952 17 326 3.2 6.4 0.00 0.00 0.00 68 1017.1
20260510123852 17 326 3.2 6.4 0.00 0.00 0.00 69 1017.0
20260510123752 17 287 3.2 4.8 0.00 0.00 0.00 71 1017.1
20260510123652 17 317 3.2 4.8 0.00 0.00 0.00 70 1017.1
20260510123548 17 317 3.2 6.4 0.00 0.00 0.00 70 1017.1
20260510123448 17 318 3.2 8.0 0.00 0.00 0.00 70 1017.1
20260510123347 17 320 3.2 8.0 0.00 0.00 0.00 70 1017.1
20260510123248 17 314 3.2 8.0 0.00 0.00 0.00 70 1017.0
20260510123148 17 317 3.2 8.0 0.00 0.00 0.00 70 1017.0
20260510123046 17 317 3.2 8.0 0.00 0.00 0.00 71 1017.1
20260510122947 17 300 3.2 8.0 0.00 0.00 0.00 69 1017.0
20260510122845 17 300 3.2 8.0 0.00 0.00 0.00 69 1017.1
20260510122746 17 288 3.2 8.0 0.00 0.00 0.00 69 1017.1
20260510122644 17 292 3.2 8.0 0.00 0.00 0.00 70 1017.1
20260510122544 17 327 3.2 8.0 0.00 0.00 0.00 70 1017.0
20260510122443 17 321 3.2 6.4 0.00 0.00 0.00 72 1017.1
20260510122343 17 332 3.2 6.4 0.00 0.00 0.00 72 1017.0
20260510122244 17 303 3.2 6.4 0.00 0.00 0.00 72 1016.9
20260510122143 17 329 3.2 6.4 0.00 0.00 0.00 73 1016.9
20260510122044 17 329 3.2 6.4 0.00 0.00 0.00 72 1016.9
20260510121944 17 329 1.6 6.4 0.00 0.00 0.00 72 1016.9
20260510121839 17 312 1.6 6.4 0.00 0.00 0.00 71 1016.9
20260510121738 16 308 1.6 6.4 0.00 0.00 0.00 71 1016.9
20260510121638 16 308 1.6 6.4 0.00 0.00 0.00 71 1016.9
20260510121537 16 306 3.2 6.4 0.00 0.00 0.00 72 1016.9
20260510121438 16 311 3.2 6.4 0.00 0.00 0.00 72 1016.9
20260510121338 16 311 3.2 6.4 0.00 0.00 0.00 72 1016.9
20260510121235 16 312 1.6 6.4 0.00 0.00 0.00 73 1016.9
20260510121136 16 313 1.6 4.8 0.00 0.00 0.00 73 1016.9
20260510121034 16 312 3.2 4.8 0.00 0.00 0.00 73 1016.9
20260510120933 16 312 3.2 6.4 0.00 0.00 0.00 73 1016.7
20260510120832 16 312 3.2 6.4 0.00 0.00 0.00 73 1016.7
20260510120730 16 312 3.2 6.4 0.00 0.00 0.00 73 1016.7
20260510120630 16 313 3.2 11.3 0.00 0.00 0.00 72 1016.7
20260510120527 16 313 3.2 11.3 0.00 0.00 0.00 72 1016.6
20260510120425 16 312 3.2 11.3 0.00 0.00 0.00 72 1016.5
20260510120325 16 312 3.2 11.3 0.00 0.00 0.00 71 1016.5
20260510120226 16 312 4.8 11.3 0.00 0.00 0.00 72 1016.5
20260510120127 16 311 4.8 11.3 0.00 0.00 0.00 71 1016.5
20260510120026 16 313 4.8 11.3 0.00 0.00 0.00 71 1016.5
20260510115925 16 320 4.8 11.3 0.00 0.00 0.00 71 1016.5
20260510115826 16 298 4.8 11.3 0.00 0.00 0.00 71 1016.5
20260510115721 16 294 6.4 11.3 0.00 0.00 0.00 70 1016.5
20260510115622 16 317 6.4 11.3 0.00 0.00 0.00 71 1016.5
20260510115519 16 318 6.4 14.5 0.00 0.00 0.00 71 1016.5
20260510115417 16 314 6.4 14.5 0.00 0.00 0.00 70 1016.5
20260510115317 16 296 6.4 14.5 0.00 0.00 0.00 70 1016.4
20260510115216 16 324 6.4 14.5 0.00 0.00 0.00 70 1016.4
20260510115116 16 306 8.0 14.5 0.00 0.00 0.00 70 1016.4
20260510115015 16 317 8.0 14.5 0.00 0.00 0.00 69 1016.3
20260510114916 16 292 8.0 14.5 0.00 0.00 0.00 69 1016.3
20260510114816 16 282 8.0 14.5 0.00 0.00 0.00 69 1016.3
20260510114715 16 307 8.0 16.1 0.00 0.00 0.00 68 1016.2
20260510114609 16 296 8.0 16.1 0.00 0.00 0.00 69 1016.2
20260510114509 16 300 8.0 16.1 0.00 0.00 0.00 69 1016.3
20260510114410 16 295 8.0 16.1 0.00 0.00 0.00 69 1016.2
20260510114209 16 329 8.0 16.1 0.00 0.00 0.00 69 1016.2
20260510114104 16 317 8.0 16.1 0.00 0.00 0.00 69 1016.2
20260510114004 16 288 8.0 16.1 0.00 0.00 0.00 69 1016.1
20260510113905 15 290 8.0 16.1 0.00 0.00 0.00 68 1016.0
20260510113804 15 310 6.4 16.1 0.00 0.00 0.00 69 1016.0
20260510113703 15 315 6.4 16.1 0.00 0.00 0.00 70 1016.0
20260510113552 15 309 6.4 16.1 0.00 0.00 0.00 71 1015.9
20260510113451 15 312 6.4 12.9 0.00 0.00 0.00 72 1015.9
20260510113353 15 305 6.4 16.1 0.00 0.00 0.00 71 1015.9
20260510113251 15 301 6.4 16.1 0.00 0.00 0.00 72 1015.9
20260510113151 15 323 6.4 16.1 0.00 0.00 0.00 73 1015.8
20260510113048 15 315 6.4 16.1 0.00 0.00 0.00 74 1015.9
20260510112945 15 310 6.4 16.1 0.00 0.00 0.00 74 1015.8
20260510112846 15 313 6.4 16.1 0.00 0.00 0.00 74 1015.8
20260510112746 15 302 6.4 16.1 0.00 0.00 0.00 73 1015.7
20260510112645 15 304 6.4 16.1 0.00 0.00 0.00 73 1015.7
20260510112540 15 306 4.8 16.1 0.00 0.00 0.00 74 1015.6
20260510112438 15 288 4.8 16.1 0.00 0.00 0.00 76 1015.7
20260510112340 15 328 3.2 12.9 0.00 0.00 0.00 77 1015.7
20260510112239 15 309 3.2 12.9 0.00 0.00 0.00 78 1015.6
20260510112139 15 301 3.2 6.4 0.00 0.00 0.00 79 1015.5
20260510112031 15 298 3.2 6.4 0.00 0.00 0.00 79 1015.6
20260510111929 15 298 3.2 6.4 0.00 0.00 0.00 80 1015.6
20260510111830 15 269 3.2 4.8 0.00 0.00 0.00 79 1015.6
20260510111729 15 269 3.2 4.8 0.00 0.00 0.00 80 1015.6
20260510111629 15 268 3.2 4.8 0.00 0.00 0.00 80 1015.6
20260510111523 15 268 3.2 4.8 0.00 0.00 0.00 80 1015.5
20260510111423 15 267 3.2 6.4 0.00 0.00 0.00 80 1015.5
20260510111323 15 267 3.2 6.4 0.00 0.00 0.00 80 1015.5
20260510111223 15 268 3.2 6.4 0.00 0.00 0.00 80 1015.5
20260510111124 15 268 3.2 6.4 0.00 0.00 0.00 80 1015.5
20260510111020 15 268 3.2 6.4 0.00 0.00 0.00 80 1015.5
20260510110917 15 269 3.2 6.4 0.00 0.00 0.00 80 1015.5
20260510110818 15 271 3.2 6.4 0.00 0.00 0.00 80 1015.4
20260510110717 15 271 3.2 6.4 0.00 0.00 0.00 80 1015.4
20260510110617 15 272 3.2 6.4 0.00 0.00 0.00 80 1015.4
20260510110508 15 302 3.2 6.4 0.00 0.00 0.00 80 1015.5
20260510110407 14 290 3.2 6.4 0.00 0.00 0.00 80 1015.4
20260510110308 15 290 3.2 6.4 0.00 0.00 0.00 80 1015.4
20260510110207 15 293 3.2 6.4 0.00 0.00 0.00 80 1015.4
20260510110107 14 296 3.2 6.4 0.00 0.00 0.00 80 1015.4
20260510110002 14 295 3.2 6.4 0.00 0.00 0.00 80 1015.4
20260510105902 14 267 3.2 6.4 0.00 0.00 0.00 79 1015.3
20260510105803 14 265 3.2 6.4 0.00 0.00 0.00 79 1015.3
20260510105703 14 313 3.2 6.4 0.00 0.00 0.00 79 1015.4
20260510105601 14 301 3.2 6.4 0.00 0.00 0.00 79 1015.3
20260510105458 14 296 3.2 6.4 0.00 0.00 0.00 79 1015.3
20260510105356 14 296 3.2 6.4 0.00 0.00 0.00 79 1015.4
20260510105257 14 302 3.2 6.4 0.00 0.00 0.00 79 1015.3
20260510105158 14 298 4.8 6.4 0.00 0.00 0.00 79 1015.3
20260510105055 14 310 4.8 11.3 0.00 0.00 0.00 79 1015.1
20260510104948 14 312 4.8 11.3 0.00 0.00 0.00 79 1015.1
20260510104845 14 290 4.8 11.3 0.00 0.00 0.00 79 1015.3
20260510104746 14 298 4.8 11.3 0.00 0.00 0.00 79 1015.3
20260510104646 14 292 4.8 11.3 0.00 0.00 0.00 79 1015.3
20260510104545 14 290 4.8 11.3 0.00 0.00 0.00 79 1015.3
20260510104439 14 291 4.8 11.3 0.00 0.00 0.00 78 1015.3
20260510104338 14 284 4.8 11.3 0.00 0.00 0.00 78 1015.3
20260510104240 14 282 4.8 11.3 0.00 0.00 0.00 78 1015.1
20260510104140 14 281 3.2 11.3 0.00 0.00 0.00 78 1015.3
20260510104040 14 311 3.2 8.0 0.00 0.00 0.00 78 1015.1
20260510103934 14 310 3.2 8.0 0.00 0.00 0.00 78 1015.1
20260510103833 14 309 3.2 8.0 0.00 0.00 0.00 78 1015.1
20260510103734 14 301 3.2 8.0 0.00 0.00 0.00 78 1015.1
20260510103633 14 304 1.6 8.0 0.00 0.00 0.00 78 1015.1
20260510103534 14 269 1.6 4.8 0.00 0.00 0.00 78 1015.1
20260510103425 14 267 1.6 4.8 0.00 0.00 0.00 79 1015.0
20260510103326 14 263 1.6 4.8 0.00 0.00 0.00 79 1015.0
20260510103225 14 259 1.6 4.8 0.00 0.00 0.00 79 1015.0
20260510103125 14 259 1.6 4.8 0.00 0.00 0.00 79 1014.9
20260510103023 14 259 1.6 4.8 0.00 0.00 0.00 79 1015.0
20260510102918 14 259 1.6 4.8 0.00 0.00 0.00 78 1015.0
20260510102816 14 259 1.6 4.8 0.00 0.00 0.00 78 1014.8
20260510102718 14 259 1.6 4.8 0.00 0.00 0.00 79 1014.8
20260510102618 14 259 1.6 3.2 0.00 0.00 0.00 78 1014.8
20260510102517 14 259 1.6 3.2 0.00 0.00 0.00 78 1014.8
20260510102415 14 259 0.0 3.2 0.00 0.00 0.00 78 1014.7
20260510102312 14 259 0.0 3.2 0.00 0.00 0.00 78 1014.7
20260510102212 14 259 0.0 3.2 0.00 0.00 0.00 78 1014.6
20260510102111 14 259 0.0 3.2 0.00 0.00 0.00 78 1014.7
20260510102012 14 259 0.0 3.2 0.00 0.00 0.00 78 1014.5
20260510101901 14 259 0.0 3.2 0.00 0.00 0.00 78 1014.5
20260510101800 14 259 0.0 3.2 0.00 0.00 0.00 78 1014.6
20260510101702 14 259 0.0 6.4 0.00 0.00 0.00 78 1014.5
20260510101602 14 259 0.0 6.4 0.00 0.00 0.00 78 1014.5
20260510101501 14 259 0.0 6.4 0.00 0.00 0.00 78 1014.5
20260510101359 14 259 0.0 6.4 0.00 0.00 0.00 78 1014.5
20260510101259 14 259 0.0 6.4 0.00 0.00 0.00 78 1014.5
20260510101200 14 258 0.0 6.4 0.00 0.00 0.00 78 1014.5
20260510101058 14 295 0.0 6.4 0.00 0.00 0.00 78 1014.4
20260510100955 14 295 0.0 6.4 0.00 0.00 0.00 78 1014.5
20260510100855 14 295 0.0 6.4 0.00 0.00 0.00 78 1014.5
20260510100752 14 295 0.0 6.4 0.00 0.00 0.00 78 1014.5
20260510100653 14 272 0.0 3.2 0.00 0.00 0.00 78 1014.5
20260510100552 14 272 0.0 3.2 0.00 0.00 0.00 78 1014.4
20260510100450 14 272 0.0 3.2 0.00 0.00 0.00 78 1014.5
20260510100342 14 272 0.0 3.2 0.00 0.00 0.00 78 1014.4
20260510100243 14 272 0.0 3.2 0.00 0.00 0.00 78 1014.4
20260510100145 14 272 0.0 3.2 0.00 0.00 0.00 78 1014.4
20260510100043 14 272 0.0 3.2 0.00 0.00 0.00 79 1014.4
20260510095939 14 275 0.0 3.2 0.00 0.00 0.00 79 1014.3
20260510095838 14 275 0.0 3.2 0.00 0.00 0.00 79 1014.3
20260510095737 14 275 0.0 3.2 0.00 0.00 0.00 79 1014.3
20260510095635 14 275 0.0 3.2 0.00 0.00 0.00 79 1014.4
20260510095535 14 275 0.0 3.2 0.00 0.00 0.00 79 1014.3
20260510095434 14 275 0.0 3.2 0.00 0.00 0.00 79 1014.3
20260510095334 14 275 0.0 3.2 0.00 0.00 0.00 79 1014.3
20260510095231 14 275 0.0 0.0 0.00 0.00 0.00 79 1014.4
20260510095131 14 275 0.0 0.0 0.00 0.00 0.00 79 1014.3
20260510095030 14 275 0.0 1.6 0.00 0.00 0.00 79 1014.3
20260510094927 14 275 0.0 1.6 0.00 0.00 0.00 79 1014.3
20260510094819 14 275 0.0 1.6 0.00 0.00 0.00 79 1014.3
20260510094719 14 275 0.0 1.6 0.00 0.00 0.00 78 1014.3
20260510094618 14 275 0.0 3.2 0.00 0.00 0.00 78 1014.2
20260510094516 14 275 0.0 3.2 0.00 0.00 0.00 78 1014.3
20260510094418 14 275 1.6 3.2 0.00 0.00 0.00 78 1014.2
20260510094316 14 275 1.6 4.8 0.00 0.00 0.00 79 1014.3
20260510094215 14 275 1.6 4.8 0.00 0.00 0.00 79 1014.3
20260510094115 14 275 1.6 4.8 0.00 0.00 0.00 79 1014.3
20260510094013 14 275 1.6 4.8 0.00 0.00 0.00 79 1014.3
20260510093912 14 275 1.6 4.8 0.00 0.00 0.00 79 1014.2
20260510093805 14 275 1.6 4.8 0.00 0.00 0.00 79 1014.3
20260510093705 14 275 1.6 4.8 0.00 0.00 0.00 79 1014.4
20260510093606 14 275 1.6 4.8 0.00 0.00 0.00 79 1014.3
20260510093505 15 275 1.6 4.8 0.00 0.00 0.00 79 1014.4
20260510093406 15 275 1.6 4.8 0.00 0.00 0.00 78 1014.3
20260510093257 15 275 1.6 3.2 0.00 0.00 0.00 78 1014.3
20260510093156 15 275 1.6 3.2 0.00 0.00 0.00 78 1014.3
20260510093055 15 275 1.6 4.8 0.00 0.00 0.00 78 1014.3
20260510092955 15 275 1.6 4.8 0.00 0.00 0.00 78 1014.3
20260510092856 15 275 1.6 4.8 0.00 0.00 0.00 78 1014.3
20260510092756 15 275 1.6 4.8 0.00 0.00 0.00 78 1014.3
20260510092654 15 274 1.6 4.8 0.00 0.00 0.00 78 1014.2
20260510092551 15 274 1.6 4.8 0.00 0.00 0.00 78 1014.2
20260510092452 15 274 1.6 4.8 0.00 0.00 0.00 78 1014.2
20260510092349 15 274 1.6 4.8 0.00 0.00 0.00 78 1014.3
20260510092249 15 274 1.6 4.8 0.00 0.00 0.00 78 1014.2
20260510092147 15 274 1.6 4.8 0.00 0.00 0.00 78 1014.2
20260510092047 15 288 1.6 4.8 0.00 0.00 0.00 78 1014.3
20260510091946 15 288 1.6 4.8 0.00 0.00 0.00 78 1014.2
20260510091844 15 288 1.6 4.8 0.00 0.00 0.00 78 1014.3
20260510091737 15 289 1.6 4.8 0.00 0.00 0.00 78 1014.2
20260510091637 15 285 1.6 4.8 0.00 0.00 0.00 78 1014.3
20260510091538 15 311 1.6 3.2 0.00 0.00 0.00 78 1014.1
20260510091437 15 311 1.6 3.2 0.00 0.00 0.00 78 1014.2
20260510091334 15 311 1.6 4.8 0.00 0.00 0.00 78 1014.1
20260510091228 15 311 1.6 4.8 0.00 0.00 0.00 78 1014.2
20260510091127 15 311 1.6 4.8 0.00 0.00 0.00 78 1014.2
20260510091028 15 311 1.6 6.4 0.00 0.00 0.00 78 1014.2
20260510090928 15 312 1.6 6.4 0.00 0.00 0.00 78 1014.1
20260510090828 15 312 1.6 6.4 0.00 0.00 0.00 78 1014.1
20260510090727 15 312 1.6 6.4 0.00 0.00 0.00 78 1014.1
20260510090626 15 312 1.6 6.4 0.00 0.00 0.00 78 1014.1
20260510090524 15 312 1.6 6.4 0.00 0.00 0.00 78 1014.1
20260510090424 15 312 1.6 6.4 0.00 0.00 0.00 78 1014.1
20260510090322 15 312 1.6 6.4 0.00 0.00 0.00 78 1014.1
20260510090213 15 312 1.6 6.4 0.00 0.00 0.00 78 1014.1
20260510090111 15 313 1.6 6.4 0.00 0.00 0.00 78 1014.1
20260510090011 15 277 1.6 3.2 0.00 0.00 0.00 78 1014.2
20260510085912 15 277 1.6 3.2 0.00 0.00 0.00 78 1014.1
20260510085811 15 277 0.0 3.2 0.00 0.00 0.00 78 1014.2
20260510085712 15 277 0.0 3.2 0.00 0.00 0.00 78 1014.2
20260510085609 15 277 0.0 3.2 0.00 0.00 0.00 78 1014.1
20260510085507 15 277 0.0 3.2 0.00 0.00 0.00 77 1014.1
20260510085408 15 277 0.0 3.2 0.00 0.00 0.00 77 1014.1
20260510085306 15 274 0.0 0.0 0.00 0.00 0.00 78 1014.1
20260510085203 15 274 0.0 0.0 0.00 0.00 0.00 77 1014.1
20260510085104 15 274 0.0 0.0 0.00 0.00 0.00 77 1014.1
20260510085000 15 274 0.0 0.0 0.00 0.00 0.00 77 1014.1
20260510084902 15 273 0.0 0.0 0.00 0.00 0.00 77 1014.1
20260510084801 15 273 0.0 0.0 0.00 0.00 0.00 77 1014.1
20260510084701 15 273 0.0 0.0 0.00 0.00 0.00 77 1014.1
20260510084601 15 273 0.0 0.0 0.00 0.00 0.00 77 1014.2
20260510084501 15 273 0.0 0.0 0.00 0.00 0.00 77 1014.1
20260510084401 15 273 0.0 0.0 0.00 0.00 0.00 77 1014.1
20260510084302 15 273 0.0 0.0 0.00 0.00 0.00 77 1014.1
20260510084202 15 273 0.0 0.0 0.00 0.00 0.00 77 1014.1
20260510084100 15 273 0.0 0.0 0.00 0.00 0.00 76 1014.1
20260510083959 15 273 0.0 0.0 0.00 0.00 0.00 76 1014.0
20260510083856 15 273 0.0 0.0 0.00 0.00 0.00 76 1014.1
20260510083758 15 273 0.0 0.0 0.00 0.00 0.00 76 1014.0
20260510083655 15 273 0.0 0.0 0.00 0.00 0.00 76 1014.0
20260510083552 15 274 0.0 0.0 0.00 0.00 0.00 76 1014.0
20260510083454 15 274 0.0 0.0 0.00 0.00 0.00 76 1014.0
20260510083351 15 274 0.0 0.0 0.00 0.00 0.00 76 1014.0
20260510083252 15 274 0.0 0.0 0.00 0.00 0.00 76 1014.0
20260510083151 15 274 0.0 0.0 0.00 0.00 0.00 76 1014.0
20260510083051 15 274 0.0 0.0 0.00 0.00 0.00 76 1014.0
20260510082946 15 274 0.0 0.0 0.00 0.00 0.00 76 1014.0
20260510082845 15 274 0.0 0.0 0.00 0.00 0.00 76 1014.0
20260510082745 15 274 0.0 0.0 0.00 0.00 0.00 76 1013.9
20260510082645 15 274 0.0 1.6 0.00 0.00 0.00 76 1013.9
20260510082546 15 274 0.0 1.6 0.00 0.00 0.00 76 1014.0
20260510082445 15 274 0.0 1.6 0.00 0.00 0.00 76 1013.8
20260510082342 15 274 0.0 1.6 0.00 0.00 0.00 76 1013.9
20260510082244 15 274 0.0 1.6 0.00 0.00 0.00 75 1013.8
20260510082142 15 274 0.0 3.2 0.00 0.00 0.00 75 1013.9
20260510082040 15 274 0.0 3.2 0.00 0.00 0.00 75 1013.8
20260510081939 15 274 0.0 3.2 0.00 0.00 0.00 75 1013.8
20260510081838 15 274 0.0 3.2 0.00 0.00 0.00 75 1013.8
20260510081737 15 274 0.0 4.8 0.00 0.00 0.00 75 1013.8
20260510081636 15 273 0.0 4.8 0.00 0.00 0.00 76 1013.8
20260510081533 15 273 0.0 4.8 0.00 0.00 0.00 75 1013.8
20260510081434 15 273 0.0 4.8 0.00 0.00 0.00 75 1013.7
20260510081332 15 273 0.0 4.8 0.00 0.00 0.00 75 1013.7
20260510081231 15 273 0.0 4.8 0.00 0.00 0.00 75 1013.8
20260510081128 15 275 1.6 4.8 0.00 0.00 0.00 75 1013.7
20260510081030 15 275 1.6 4.8 0.00 0.00 0.00 75 1013.7
20260510080928 15 275 1.6 4.8 0.00 0.00 0.00 75 1013.7
20260510080830 15 275 1.6 4.8 0.00 0.00 0.00 75 1013.7
20260510080728 15 275 1.6 4.8 0.00 0.00 0.00 75 1013.5
20260510080628 15 275 1.6 4.8 0.00 0.00 0.00 75 1013.7
20260510080527 15 275 1.6 4.8 0.00 0.00 0.00 75 1013.7
20260510080427 15 275 1.6 4.8 0.00 0.00 0.00 75 1013.5
20260510080326 15 277 1.6 4.8 0.00 0.00 0.00 75 1013.5
20260510080226 16 277 1.6 4.8 0.00 0.00 0.00 75 1013.5
20260510080125 16 263 1.6 4.8 0.00 0.00 0.00 74 1013.5
20260510080026 16 263 1.6 4.8 0.00 0.00 0.00 74 1013.5
20260510075926 16 263 1.6 4.8 0.00 0.00 0.00 74 1013.5
20260510075825 16 280 1.6 4.8 0.00 0.00 0.00 74 1013.4
20260510075724 16 313 1.6 4.8 0.00 0.00 0.00 74 1013.5
20260510075623 16 313 0.0 4.8 0.00 0.00 0.00 74 1013.4
20260510075523 16 318 0.0 4.8 0.00 0.00 0.00 74 1013.4
20260510075422 16 318 1.6 4.8 0.00 0.00 0.00 74 1013.4
20260510075319 16 318 1.6 6.4 0.00 0.00 0.00 74 1013.4
20260510075220 16 319 1.6 6.4 0.00 0.00 0.00 74 1013.4
20260510075116 16 278 0.0 6.4 0.00 0.00 0.00 74 1013.4
20260510075016 16 301 1.6 6.4 0.00 0.00 0.00 74 1013.4
20260510074915 16 301 1.6 6.4 0.00 0.00 0.00 74 1013.4
20260510074814 16 301 1.6 6.4 0.00 0.00 0.00 74 1013.4
20260510074714 16 299 1.6 6.4 0.00 0.00 0.00 74 1013.4
20260510074612 16 299 1.6 8.0 0.00 0.00 0.00 74 1013.4
20260510074512 16 300 3.2 8.0 0.00 0.00 0.00 73 1013.3
20260510074409 16 300 3.2 8.0 0.00 0.00 0.00 74 1013.4
20260510074309 16 298 3.2 8.0 0.00 0.00 0.00 74 1013.4
20260510074209 16 302 3.2 8.0 0.00 0.00 0.00 74 1013.4
20260510074110 16 302 4.8 8.0 0.00 0.00 0.00 74 1013.3
20260510074007 16 310 4.8 8.0 0.00 0.00 0.00 74 1013.4
20260510073907 16 304 4.8 8.0 0.00 0.00 0.00 73 1013.3
20260510073807 16 306 4.8 9.7 0.00 0.00 0.00 73 1013.3
20260510073704 16 302 4.8 9.7 0.00 0.00 0.00 73 1013.3
20260510073606 16 302 4.8 9.7 0.00 0.00 0.00 73 1013.3
20260510073506 16 304 6.4 9.7 0.00 0.00 0.00 73 1013.3
20260510073406 16 301 6.4 9.7 0.00 0.00 0.00 73 1013.4
20260510073305 16 304 6.4 9.7 0.00 0.00 0.00 73 1013.3
20260510073205 16 309 6.4 9.7 0.00 0.00 0.00 73 1013.3
20260510073106 16 298 6.4 9.7 0.00 0.00 0.00 73 1013.3
20260510073001 16 299 6.4 9.7 0.00 0.00 0.00 73 1013.3
20260510072900 16 273 6.4 9.7 0.00 0.00 0.00 73 1013.2
20260510072801 16 313 6.4 12.9 0.00 0.00 0.00 73 1013.2
20260510072700 16 291 6.4 12.9 0.00 0.00 0.00 73 1013.2
20260510072602 16 299 8.0 12.9 0.00 0.00 0.00 72 1013.2
20260510072501 16 291 8.0 12.9 0.00 0.00 0.00 72 1013.3
20260510072402 16 306 8.0 12.9 0.00 0.00 0.00 72 1013.2
20260510072300 16 290 8.0 12.9 0.00 0.00 0.00 72 1013.3
20260510072202 16 314 8.0 12.9 0.00 0.00 0.00 73 1013.3
20260510072100 16 296 8.0 12.9 0.00 0.00 0.00 73 1013.2
20260510072002 16 273 8.0 12.9 0.00 0.00 0.00 73 1013.2
20260510071900 16 303 8.0 12.9 0.00 0.00 0.00 73 1013.3
20260510071801 16 300 6.4 12.9 0.00 0.00 0.00 73 1013.2
20260510071701 16 295 6.4 12.9 0.00 0.00 0.00 73 1013.3
20260510071601 16 287 6.4 12.9 0.00 0.00 0.00 73 1013.2
20260510071501 16 311 6.4 12.9 0.00 0.00 0.00 73 1013.3
20260510071401 16 301 6.4 11.3 0.00 0.00 0.00 73 1013.2
20260510071258 16 304 6.4 11.3 0.00 0.00 0.00 73 1013.2
20260510071155 16 294 6.4 11.3 0.00 0.00 0.00 73 1013.3
20260510071056 16 314 6.4 12.9 0.00 0.00 0.00 73 1013.2
20260510070956 16 301 6.4 12.9 0.00 0.00 0.00 73 1013.2
20260510070855 16 307 6.4 12.9 0.00 0.00 0.00 74 1013.2
20260510070748 16 303 4.8 12.9 0.00 0.00 0.00 74 1013.3
20260510070649 16 309 4.8 12.9 0.00 0.00 0.00 74 1013.3
20260510070549 16 302 4.8 12.9 0.00 0.00 0.00 74 1013.3
20260510070450 16 300 4.8 12.9 0.00 0.00 0.00 74 1013.3
20260510070349 16 295 4.8 12.9 0.00 0.00 0.00 74 1013.4
20260510070246 16 291 4.8 12.9 0.00 0.00 0.00 74 1013.3
20260510070142 16 294 3.2 12.9 0.00 0.00 0.00 74 1013.4
20260510070044 15 293 3.2 6.4 0.00 0.00 0.00 74 1013.4
20260510065942 15 280 3.2 6.4 0.00 0.00 0.00 75 1013.4
20260510065843 15 271 3.2 6.4 0.00 0.00 0.00 75 1013.3
20260510065744 15 296 3.2 8.0 0.00 0.00 0.00 74 1013.3
20260510065641 15 278 3.2 8.0 0.00 0.00 0.00 75 1013.3
20260510065539 15 276 3.2 8.0 0.00 0.00 0.00 75 1013.3
20260510065439 15 266 3.2 8.0 0.00 0.00 0.00 75 1013.3
20260510065339 15 261 3.2 8.0 0.00 0.00 0.00 75 1013.3
20260510065240 15 278 3.2 8.0 0.00 0.00 0.00 75 1013.2
20260510065138 15 286 3.2 8.0 0.00 0.00 0.00 75 1013.2
20260510065038 15 290 3.2 8.0 0.00 0.00 0.00 75 1013.3
20260510064937 15 302 3.2 8.0 0.00 0.00 0.00 75 1013.3
20260510064838 15 309 1.6 8.0 0.00 0.00 0.00 75 1013.3
20260510064734 15 269 1.6 6.4 0.00 0.00 0.00 75 1013.2
20260510064633 15 263 1.6 4.8 0.00 0.00 0.00 76 1013.3
20260510064533 15 262 1.6 4.8 0.00 0.00 0.00 76 1013.3
20260510064432 15 271 1.6 4.8 0.00 0.00 0.00 76 1013.3
20260510064330 15 271 1.6 4.8 0.00 0.00 0.00 76 1013.2
20260510064230 15 271 1.6 4.8 0.00 0.00 0.00 76 1013.4
20260510064131 15 271 1.6 4.8 0.00 0.00 0.00 76 1013.3
20260510064030 15 269 1.6 4.8 0.00 0.00 0.00 76 1013.3
20260510063929 15 269 1.6 4.8 0.00 0.00 0.00 77 1013.3
20260510063828 15 269 0.0 4.8 0.00 0.00 0.00 76 1013.4
20260510063728 15 269 0.0 4.8 0.00 0.00 0.00 76 1013.3
20260510063625 15 269 0.0 3.2 0.00 0.00 0.00 77 1013.3
20260510063524 15 269 0.0 3.2 0.00 0.00 0.00 77 1013.4
20260510063423 15 269 0.0 0.0 0.00 0.00 0.00 77 1013.3
20260510063323 15 269 0.0 0.0 0.00 0.00 0.00 77 1013.4
20260510063220 15 269 0.0 0.0 0.00 0.00 0.00 77 1013.3
20260510063120 15 269 0.0 0.0 0.00 0.00 0.00 77 1013.4
20260510063015 15 269 0.0 1.6 0.00 0.00 0.00 77 1013.3
20260510062912 15 269 0.0 1.6 0.00 0.00 0.00 77 1013.4
20260510062813 15 269 0.0 1.6 0.00 0.00 0.00 77 1013.3
20260510062712 15 269 0.0 1.6 0.00 0.00 0.00 77 1013.4
20260510062609 15 269 0.0 1.6 0.00 0.00 0.00 77 1013.4
20260510062503 15 269 0.0 1.6 0.00 0.00 0.00 77 1013.3
20260510062404 15 269 0.0 1.6 0.00 0.00 0.00 78 1013.4
20260510062306 15 269 0.0 6.4 0.00 0.00 0.00 77 1013.4
20260510062204 15 269 0.0 6.4 0.00 0.00 0.00 78 1013.4
20260510062104 15 269 0.0 6.4 0.00 0.00 0.00 78 1013.3
20260510061957 15 269 0.0 6.4 0.00 0.00 0.00 78 1013.4
20260510061856 15 269 0.0 6.4 0.00 0.00 0.00 78 1013.4
20260510061757 15 269 0.0 6.4 0.00 0.00 0.00 78 1013.4
20260510061657 15 269 0.0 6.4 0.00 0.00 0.00 77 1013.4
20260510061557 15 269 0.0 6.4 0.00 0.00 0.00 78 1013.4
20260510061457 15 269 0.0 6.4 0.00 0.00 0.00 77 1013.4
20260510061357 15 269 0.0 6.4 0.00 0.00 0.00 77 1013.4
20260510061258 15 240 1.6 4.8 0.00 0.00 0.00 78 1013.5
20260510061156 15 240 0.0 4.8 0.00 0.00 0.00 77 1013.4
20260510061056 15 240 1.6 4.8 0.00 0.00 0.00 77 1013.5
20260510060956 15 240 1.6 4.8 0.00 0.00 0.00 77 1013.5
20260510060856 15 282 1.6 4.8 0.00 0.00 0.00 78 1013.5
20260510060757 15 282 1.6 6.4 0.00 0.00 0.00 78 1013.5
20260510060655 15 282 1.6 6.4 0.00 0.00 0.00 78 1013.5
20260510060556 15 282 1.6 6.4 0.00 0.00 0.00 78 1013.5
20260510060452 15 283 1.6 6.4 0.00 0.00 0.00 78 1013.5
20260510060351 15 284 1.6 6.4 0.00 0.00 0.00 78 1013.4
20260510060250 15 283 1.6 6.4 0.00 0.00 0.00 78 1013.4
20260510060149 15 281 1.6 6.4 0.00 0.00 0.00 78 1013.4
20260510060049 15 281 1.6 6.4 0.00 0.00 0.00 78 1013.4
20260510055950 15 293 0.0 6.4 0.00 0.00 0.00 78 1013.4
20260510055849 15 294 0.0 6.4 0.00 0.00 0.00 79 1013.5
20260510055745 15 287 0.0 3.2 0.00 0.00 0.00 79 1013.4
20260510055644 15 287 0.0 3.2 0.00 0.00 0.00 79 1013.5
20260510055542 15 287 0.0 3.2 0.00 0.00 0.00 79 1013.5
20260510055443 15 287 0.0 3.2 0.00 0.00 0.00 79 1013.5
20260510055344 15 287 0.0 3.2 0.00 0.00 0.00 78 1013.7
20260510055244 15 287 0.0 3.2 0.00 0.00 0.00 78 1013.5
20260510055142 15 287 0.0 6.4 0.00 0.00 0.00 78 1013.8
20260510055042 15 284 0.0 6.4 0.00 0.00 0.00 78 1013.7
20260510054939 15 281 0.0 6.4 0.00 0.00 0.00 78 1013.7
20260510054839 15 281 0.0 6.4 0.00 0.00 0.00 78 1013.7
20260510054739 15 281 0.0 6.4 0.00 0.00 0.00 79 1013.5
20260510054639 15 280 0.0 6.4 0.00 0.00 0.00 79 1013.7
20260510054538 15 281 0.0 6.4 0.00 0.00 0.00 79 1013.7
20260510054438 15 281 0.0 6.4 0.00 0.00 0.00 79 1013.5
20260510054340 15 281 0.0 6.4 0.00 0.00 0.00 79 1013.5
20260510054238 15 277 0.0 6.4 0.00 0.00 0.00 79 1013.5
20260510054137 15 230 0.0 4.8 0.00 0.00 0.00 79 1013.5
20260510054035 15 223 0.0 4.8 0.00 0.00 0.00 79 1013.5
20260510053936 15 223 0.0 4.8 0.00 0.00 0.00 79 1013.5
20260510053834 15 223 0.0 4.8 0.00 0.00 0.00 80 1013.5
20260510053733 15 223 0.0 4.8 0.00 0.00 0.00 80 1014.0
20260510053631 15 223 0.0 4.8 0.00 0.00 0.00 80 1013.5
20260510053532 15 223 0.0 4.8 0.00 0.00 0.00 80 1013.5
20260510053428 15 223 0.0 4.8 0.00 0.00 0.00 80 1013.4
20260510053330 15 223 0.0 6.4 0.00 0.00 0.00 80 1013.5
20260510053227 15 223 0.0 6.4 0.00 0.00 0.00 80 1013.5
20260510053125 15 223 1.6 6.4 0.00 0.00 0.00 80 1013.5
20260510053025 15 223 1.6 6.4 0.00 0.00 0.00 80 1013.5
20260510052924 15 223 1.6 6.4 0.00 0.00 0.00 80 1013.5
20260510052826 15 223 1.6 6.4 0.00 0.00 0.00 80 1013.5
20260510052724 15 223 1.6 6.4 0.00 0.00 0.00 80 1013.4
20260510052621 15 223 1.6 6.4 0.00 0.00 0.00 80 1013.5
20260510052515 15 223 1.6 6.4 0.00 0.00 0.00 80 1013.5
20260510052414 15 221 1.6 6.4 0.00 0.00 0.00 79 1013.5
20260510052315 15 237 1.6 6.4 0.00 0.00 0.00 80 1013.5
20260510052215 15 330 1.6 6.4 0.00 0.00 0.00 80 1013.5
20260510052115 15 290 0.0 6.4 0.00 0.00 0.00 80 1013.4
20260510052014 15 290 0.0 6.4 0.00 0.00 0.00 80 1013.5
20260510051913 15 290 0.0 6.4 0.00 0.00 0.00 80 1013.5
20260510051812 15 290 0.0 6.4 0.00 0.00 0.00 80 1013.5
20260510051712 15 290 0.0 6.4 0.00 0.00 0.00 80 1013.5
20260510051610 15 299 0.0 6.4 0.00 0.00 0.00 80 1013.4
20260510051505 15 252 0.0 6.4 0.00 0.00 0.00 81 1013.4
20260510051405 15 264 0.0 3.2 0.00 0.00 0.00 81 1013.4
20260510051303 15 264 0.0 3.2 0.00 0.00 0.00 81 1013.4
20260510051203 15 264 0.0 3.2 0.00 0.00 0.00 82 1013.5
20260510051104 15 264 0.0 3.2 0.00 0.00 0.00 82 1013.7
20260510051002 15 264 1.6 3.2 0.00 0.00 0.00 82 1013.5
20260510050902 15 264 1.6 3.2 0.00 0.00 0.00 82 1013.7
20260510050802 15 263 1.6 3.2 0.00 0.00 0.00 83 1013.7
20260510050703 15 263 1.6 3.2 0.00 0.00 0.00 83 1013.7
20260510050603 15 263 1.6 3.2 0.00 0.00 0.00 83 1013.7
20260510050502 15 263 1.6 3.2 0.00 0.00 0.00 83 1013.7
20260510050403 15 263 1.6 3.2 0.00 0.00 0.00 83 1013.7
20260510050302 15 263 1.6 3.2 0.00 0.00 0.00 84 1013.8
20260510050201 15 263 1.6 3.2 0.00 0.00 0.00 84 1013.7
20260510050058 15 263 1.6 3.2 0.00 0.00 0.00 84 1013.8
20260510045959 15 263 1.6 3.2 0.00 0.00 0.00 84 1013.8
20260510045859 15 263 0.0 3.2 0.00 0.00 0.00 84 1013.9
20260510045759 15 263 0.0 3.2 0.00 0.00 0.00 85 1013.8
20260510045659 15 263 0.0 3.2 0.00 0.00 0.00 85 1013.8
20260510045559 15 263 0.0 3.2 0.00 0.00 0.00 85 1013.9
20260510045500 15 263 0.0 3.2 0.00 0.00 0.00 85 1013.8
20260510045358 15 263 0.0 3.2 0.00 0.00 0.00 86 1013.7
20260510045258 15 262 0.0 3.2 0.00 0.00 0.00 86 1013.7
20260510045159 15 262 0.0 3.2 0.00 0.00 0.00 86 1013.7
20260510045058 15 262 0.0 3.2 0.00 0.00 0.00 86 1013.5
20260510044958 15 261 0.0 3.2 0.00 0.00 0.00 87 1013.5
20260510044900 16 261 0.0 3.2 0.00 0.00 0.00 87 1013.7
20260510044759 16 261 0.0 3.2 0.00 0.00 0.00 87 1013.5
20260510044700 16 261 0.0 3.2 0.00 0.00 0.00 87 1013.7
20260510044558 16 261 0.0 3.2 0.00 0.00 0.00 87 1013.5
20260510044500 16 261 0.0 3.2 0.00 0.00 0.00 87 1013.5
20260510044358 16 261 0.0 3.2 0.00 0.00 0.00 87 1013.7
20260510044259 16 261 0.0 3.2 0.00 0.00 0.00 87 1013.7
20260510044200 16 261 0.0 3.2 0.00 0.00 0.00 87 1013.4
20260510044059 16 261 0.0 3.2 0.00 0.00 0.00 87 1013.5
20260510043958 16 261 0.0 3.2 0.00 0.00 0.00 88 1013.5
20260510043859 16 261 0.0 3.2 0.00 0.00 0.00 88 1013.5
20260510043800 16 261 0.0 3.2 0.00 0.00 0.00 88 1013.4
20260510043656 16 261 1.6 3.2 0.00 0.00 0.00 88 1013.4
20260510043554 16 261 1.6 3.2 0.00 0.00 0.00 88 1013.7
20260510043454 16 261 1.6 3.2 0.00 0.00 0.00 88 1013.7
20260510043355 16 261 1.6 3.2 0.00 0.00 0.00 88 1013.7
20260510043255 16 261 1.6 3.2 0.00 0.00 0.00 88 1013.7
20260510043155 16 261 0.0 3.2 0.00 0.00 0.00 88 1013.8
20260510043054 16 261 0.0 3.2 0.00 0.00 0.00 88 1013.8
20260510042955 16 284 0.0 3.2 0.00 0.00 0.00 88 1013.8
20260510042855 16 285 1.6 4.8 0.00 0.00 0.00 88 1013.8
20260510042755 16 285 0.0 4.8 0.00 0.00 0.00 88 1013.8
20260510042656 16 285 1.6 4.8 0.00 0.00 0.00 87 1013.8
20260510042555 16 286 1.6 6.4 0.00 0.00 0.00 87 1013.8
20260510042454 16 286 1.6 6.4 0.00 0.00 0.00 87 1013.9
20260510042354 16 286 1.6 6.4 0.00 0.00 0.00 88 1013.8
20260510042255 16 286 1.6 6.4 0.00 0.00 0.00 88 1013.8
20260510042155 16 286 1.6 6.4 0.00 0.00 0.00 88 1013.9
20260510042055 16 286 1.6 6.4 0.00 0.00 0.00 88 1013.9
20260510041955 16 286 1.6 6.4 0.00 0.00 0.00 88 1013.8
20260510041854 16 240 1.6 6.4 0.00 0.00 0.00 88 1013.8
20260510041756 16 186 1.6 6.4 0.00 0.00 0.00 88 1013.8
20260510041654 16 186 0.0 6.4 0.00 0.00 0.00 88 1013.7
20260510041554 16 196 0.0 6.4 0.00 0.00 0.00 88 1013.5
20260510041455 16 286 0.0 3.2 0.00 0.00 0.00 88 1013.7
20260510041355 16 286 0.0 3.2 0.00 0.00 0.00 88 1013.7
20260510041254 16 286 0.0 3.2 0.00 0.00 0.00 88 1013.7
20260510041156 16 285 0.0 3.2 0.00 0.00 0.00 88 1013.8
20260510041055 16 286 0.0 3.2 0.00 0.00 0.00 87 1013.7
20260510040954 16 315 0.0 3.2 0.00 0.00 0.00 87 1013.8
20260510040856 16 313 0.0 3.2 0.00 0.00 0.00 87 1013.8
20260510040754 16 316 0.0 3.2 0.00 0.00 0.00 87 1013.9
20260510040654 16 182 0.0 3.2 0.00 0.00 0.00 87 1013.9
20260510040554 16 184 0.0 3.2 0.00 0.00 0.00 87 1013.8
20260510040456 16 184 0.0 3.2 0.00 0.00 0.00 87 1013.8
20260510040351 16 184 0.0 4.8 0.00 0.00 0.00 87 1013.7
20260510040250 16 184 0.0 4.8 0.00 0.00 0.00 87 1013.8
20260510040151 16 184 0.0 4.8 0.00 0.00 0.00 87 1013.7
20260510040052 16 184 1.6 4.8 0.00 0.00 0.00 87 1013.8
20260510035952 16 184 1.6 4.8 0.00 0.00 0.00 87 1013.8
20260510035848 16 184 1.6 4.8 0.00 0.00 0.00 87 1013.8
20260510035748 16 184 0.0 4.8 0.00 0.00 0.00 87 1013.5
20260510035646 16 184 0.0 4.8 0.00 0.00 0.00 87 1013.7
20260510035547 16 184 0.0 4.8 0.00 0.00 0.00 87 1013.7
20260510035447 16 186 0.0 3.2 0.00 0.00 0.00 87 1013.8
20260510035348 16 189 0.0 3.2 0.00 0.00 0.00 87 1013.7
20260510035244 16 189 0.0 3.2 0.00 0.00 0.00 87 1013.7
20260510035145 16 189 0.0 3.2 0.00 0.00 0.00 87 1013.8
20260510035042 16 189 0.0 3.2 0.00 0.00 0.00 87 1013.7
20260510034944 16 189 0.0 3.2 0.00 0.00 0.00 87 1013.7
20260510034842 16 190 0.0 3.2 0.00 0.00 0.00 87 1013.7
20260510034739 16 193 0.0 3.2 0.00 0.00 0.00 87 1013.7
20260510034640 16 193 0.0 3.2 0.00 0.00 0.00 87 1013.8
20260510034537 16 193 0.0 3.2 0.00 0.00 0.00 87 1013.7
20260510034438 16 193 0.0 3.2 0.00 0.00 0.00 87 1013.7
20260510034335 16 193 0.0 3.2 0.00 0.00 0.00 87 1013.7
20260510034234 16 193 1.6 3.2 0.00 0.00 0.00 87 1013.8
20260510034131 16 193 1.6 3.2 0.00 0.00 0.00 87 1013.7
20260510034032 16 193 1.6 3.2 0.00 0.00 0.00 87 1013.8
20260510033932 16 193 1.6 3.2 0.00 0.00 0.00 87 1013.7
20260510033832 16 193 1.6 3.2 0.00 0.00 0.00 87 1013.7
20260510033732 16 194 1.6 3.2 0.00 0.00 0.00 87 1013.7
20260510033627 16 194 1.6 3.2 0.00 0.00 0.00 87 1013.7
20260510033526 16 194 1.6 3.2 0.00 0.00 0.00 87 1013.7
20260510033426 16 194 1.6 3.2 0.00 0.00 0.00 87 1013.7
20260510033328 16 194 1.6 3.2 0.00 0.00 0.00 87 1013.9
20260510033225 16 194 1.6 3.2 0.00 0.00 0.00 87 1013.8
20260510033126 16 194 0.0 3.2 0.00 0.00 0.00 87 1013.7
20260510033023 16 194 0.0 3.2 0.00 0.00 0.00 87 1013.8
20260510032924 16 194 0.0 3.2 0.00 0.00 0.00 87 1013.8
20260510032822 16 194 0.0 3.2 0.00 0.00 0.00 87 1013.8
20260510032719 16 194 0.0 4.8 0.00 0.00 0.00 87 1013.8
20260510032615 16 194 0.0 4.8 0.00 0.00 0.00 87 1013.7
20260510032515 16 194 0.0 4.8 0.00 0.00 0.00 87 1013.8
20260510032415 16 194 0.0 4.8 0.00 0.00 0.00 87 1013.8
20260510032315 16 194 1.6 4.8 0.00 0.00 0.00 87 1013.7
20260510032216 16 194 1.6 4.8 0.00 0.00 0.00 87 1013.8
20260510032112 16 194 1.6 4.8 0.00 0.00 0.00 87 1013.8
20260510032012 16 194 1.6 4.8 0.00 0.00 0.00 87 1013.8
20260510031913 16 194 1.6 4.8 0.00 0.00 0.00 87 1013.8
20260510031813 16 196 1.6 4.8 0.00 0.00 0.00 87 1013.8
20260510031712 16 157 1.6 3.2 0.00 0.00 0.00 87 1013.8
20260510031613 16 157 0.0 3.2 0.00 0.00 0.00 87 1013.8
20260510031514 16 157 0.0 3.2 0.00 0.00 0.00 87 1013.8
20260510031410 16 157 0.0 3.2 0.00 0.00 0.00 87 1013.7
20260510031311 16 157 0.0 3.2 0.00 0.00 0.00 87 1013.8
20260510031210 16 186 0.0 0.0 0.00 0.00 0.00 87 1013.8
20260510031112 16 186 0.0 0.0 0.00 0.00 0.00 87 1013.8
20260510031012 16 186 0.0 1.6 0.00 0.00 0.00 87 1013.8
20260510030905 16 186 0.0 1.6 0.00 0.00 0.00 87 1013.7
20260510030805 16 186 0.0 1.6 0.00 0.00 0.00 87 1013.8
20260510030705 16 186 0.0 1.6 0.00 0.00 0.00 87 1013.8
20260510030604 16 186 0.0 1.6 0.00 0.00 0.00 88 1013.8
20260510030505 16 186 0.0 1.6 0.00 0.00 0.00 88 1013.8
20260510030403 16 186 0.0 1.6 0.00 0.00 0.00 88 1013.8
20260510030303 16 186 0.0 1.6 0.00 0.00 0.00 88 1013.9
20260510030204 16 186 0.0 1.6 0.00 0.00 0.00 88 1013.8
20260510030103 16 186 0.0 3.2 0.00 0.00 0.00 88 1013.9
20260510030004 16 186 0.0 3.2 0.00 0.00 0.00 88 1013.9
20260510025904 16 186 0.0 3.2 0.00 0.00 0.00 88 1013.8
20260510025800 16 186 0.0 3.2 0.00 0.00 0.00 88 1013.9
20260510025700 16 186 0.0 3.2 0.00 0.00 0.00 88 1013.9
20260510025601 16 186 0.0 3.2 0.00 0.00 0.00 88 1013.9
20260510025502 16 186 0.0 3.2 0.00 0.00 0.00 88 1013.9
20260510025400 16 186 0.0 3.2 0.00 0.00 0.00 88 1013.8
20260510025256 16 186 0.0 3.2 0.00 0.00 0.00 88 1013.8
20260510025156 16 186 0.0 3.2 0.00 0.00 0.00 88 1013.9
20260510025055 16 186 0.0 3.2 0.00 0.00 0.00 88 1013.9
20260510024953 16 186 0.0 3.2 0.00 0.00 0.00 88 1013.9
20260510024854 16 186 0.0 3.2 0.00 0.00 0.00 88 1013.9
20260510024750 16 186 0.0 3.2 0.00 0.00 0.00 88 1013.8
20260510024652 16 186 0.0 3.2 0.00 0.00 0.00 88 1013.9
20260510024549 16 173 0.0 1.6 0.00 0.00 0.00 88 1013.9
20260510024450 16 173 0.0 1.6 0.00 0.00 0.00 88 1013.8
20260510024348 16 173 0.0 1.6 0.00 0.00 0.00 88 1013.8
20260510024244 16 173 0.0 1.6 0.00 0.00 0.00 88 1013.8
20260510024143 16 173 0.0 3.2 0.00 0.00 0.00 88 1013.8
20260510024043 16 173 0.0 3.2 0.00 0.00 0.00 88 1013.7
20260510023942 16 173 0.0 3.2 0.00 0.00 0.00 88 1013.7
20260510023843 16 173 0.0 3.2 0.00 0.00 0.00 88 1013.7
20260510023742 16 173 0.0 3.2 0.00 0.00 0.00 88 1013.5
20260510023634 16 173 0.0 3.2 0.00 0.00 0.00 88 1013.7
20260510023536 16 173 0.0 3.2 0.00 0.00 0.00 88 1013.7
20260510023436 16 173 0.0 3.2 0.00 0.00 0.00 88 1013.5
20260510023336 16 173 0.0 3.2 0.00 0.00 0.00 88 1013.5
20260510023236 16 173 0.0 3.2 0.00 0.00 0.00 88 1013.5
20260510023130 16 173 0.0 3.2 0.00 0.00 0.00 88 1013.5
20260510023029 16 173 0.0 3.2 0.00 0.00 0.00 88 1013.7
20260510022928 16 173 0.0 3.2 0.00 0.00 0.00 88 1013.7
20260510022830 16 173 1.6 4.8 0.00 0.00 0.00 88 1013.7
20260510022728 16 173 1.6 4.8 0.00 0.00 0.00 88 1013.7
20260510022627 16 175 1.6 4.8 0.00 0.00 0.00 88 1013.5
20260510022526 16 175 1.6 4.8 0.00 0.00 0.00 88 1013.7
20260510022326 16 175 3.2 4.8 0.00 0.00 0.00 88 1013.5
20260510022224 16 175 3.2 6.4 0.00 0.00 0.00 88 1013.4
20260510022124 16 175 3.2 8.0 0.00 0.00 0.00 88 1013.4
20260510022024 16 175 3.2 8.0 0.00 0.00 0.00 88 1013.4
20260510021922 16 175 3.2 8.0 0.00 0.00 0.00 88 1013.4
20260510021823 16 175 3.2 8.0 0.00 0.00 0.00 88 1013.4
20260510021723 16 176 3.2 8.0 0.00 0.00 0.00 88 1013.4
20260510021622 16 176 3.2 8.0 0.00 0.00 0.00 88 1013.4
20260510021522 16 182 3.2 8.0 0.00 0.00 0.00 88 1013.4
20260510021424 16 187 3.2 8.0 0.00 0.00 0.00 88 1013.4
20260510021322 16 187 3.2 8.0 0.00 0.00 0.00 88 1013.4
20260510021223 16 195 3.2 8.0 0.00 0.00 0.00 88 1013.4
20260510021121 16 166 3.2 8.0 0.00 0.00 0.00 88 1013.4
20260510021022 16 165 3.2 8.0 0.00 0.00 0.00 88 1013.5
20260510020921 16 155 1.6 4.8 0.00 0.00 0.00 88 1013.3
20260510020821 16 155 1.6 4.8 0.00 0.00 0.00 87 1013.3
20260510020717 16 155 1.6 4.8 0.00 0.00 0.00 87 1013.3
20260510020617 16 155 1.6 4.8 0.00 0.00 0.00 87 1013.4
20260510020517 16 156 1.6 4.8 0.00 0.00 0.00 87 1013.4
20260510020417 16 155 1.6 4.8 0.00 0.00 0.00 87 1013.3
20260510020317 16 155 1.6 4.8 0.00 0.00 0.00 87 1013.2
20260510020219 16 155 1.6 4.8 0.00 0.00 0.00 87 1013.2
20260510020117 16 155 1.6 4.8 0.00 0.00 0.00 87 1013.2
20260510020018 16 155 3.2 8.0 0.00 0.00 0.00 87 1013.2
20260510015917 16 155 3.2 8.0 0.00 0.00 0.00 87 1013.2
20260510015716 16 155 3.2 8.0 0.00 0.00 0.00 87 1013.1
20260510015616 16 153 3.2 8.0 0.00 0.00 0.00 87 1013.2
20260510015518 16 153 3.2 8.0 0.00 0.00 0.00 87 1013.1
20260510015416 16 153 3.2 8.0 0.00 0.00 0.00 87 1013.0
20260510015316 16 157 3.2 8.0 0.00 0.00 0.00 87 1013.0
20260510015216 16 157 3.2 8.0 0.00 0.00 0.00 87 1013.0
20260510015116 16 157 3.2 8.0 0.00 0.00 0.00 87 1012.9
20260510015016 16 163 3.2 8.0 0.00 0.00 0.00 87 1012.9
20260510014916 16 188 3.2 9.7 0.00 0.00 0.00 87 1012.9
20260510014817 16 188 3.2 9.7 0.00 0.00 0.00 87 1012.9
20260510014716 16 188 3.2 9.7 0.00 0.00 0.00 87 1012.8
20260510014617 16 189 3.2 9.7 0.00 0.00 0.00 87 1012.8
20260510014517 16 191 3.2 9.7 0.00 0.00 0.00 87 1012.8
20260510014417 16 171 3.2 9.7 0.00 0.00 0.00 87 1012.8
20260510014317 16 174 3.2 9.7 0.00 0.00 0.00 87 1012.8
20260510014217 16 151 3.2 9.7 0.00 0.00 0.00 86 1012.8
20260510014116 16 151 1.6 9.7 0.00 0.00 0.00 86 1012.8
20260510014016 16 150 1.6 9.7 0.00 0.00 0.00 86 1012.8
20260510013916 16 186 1.6 6.4 0.00 0.00 0.00 86 1012.8
20260510013817 16 186 1.6 6.4 0.00 0.00 0.00 86 1012.8
20260510013716 16 187 1.6 9.7 0.00 0.00 0.00 86 1012.9
20260510013616 16 188 1.6 9.7 0.00 0.00 0.00 86 1012.8
20260510013517 16 188 1.6 9.7 0.00 0.00 0.00 86 1012.8
20260510013413 17 195 1.6 9.7 0.00 0.00 0.00 86 1012.8
20260510013313 17 197 3.2 9.7 0.00 0.00 0.00 86 1012.8
20260510013212 16 197 3.2 9.7 0.00 0.00 0.00 86 1012.8
20260510013113 17 197 3.2 9.7 0.00 0.00 0.00 86 1012.8
20260510013012 17 196 3.2 9.7 0.00 0.00 0.00 86 1012.7
20260510012913 17 198 3.2 9.7 0.00 0.00 0.00 86 1012.7
20260510012813 17 196 4.8 9.7 0.00 0.00 0.00 86 1012.7
20260510012712 17 201 4.8 9.7 0.00 0.00 0.00 86 1012.6
20260510012612 17 188 3.2 9.7 0.00 0.00 0.00 86 1012.6
20260510012513 17 178 3.2 9.7 0.00 0.00 0.00 86 1012.7
20260510012413 17 229 4.8 9.7 0.00 0.00 0.00 86 1012.6
20260510012313 17 168 4.8 11.3 0.00 0.00 0.00 86 1012.7
20260510012212 17 178 4.8 11.3 0.00 0.00 0.00 86 1012.7
20260510012114 17 178 4.8 11.3 0.00 0.00 0.00 86 1012.6
20260510012013 17 173 4.8 11.3 0.00 0.00 0.00 86 1012.7
20260510011913 17 183 4.8 11.3 0.00 0.00 0.00 86 1012.6
20260510011813 17 177 4.8 12.9 0.00 0.00 0.00 86 1012.5
20260510011713 17 155 4.8 12.9 0.00 0.00 0.00 86 1012.5
20260510011612 17 167 4.8 12.9 0.00 0.00 0.00 85 1012.6
20260510011514 17 198 4.8 12.9 0.00 0.00 0.00 85 1012.5
20260510011412 17 135 3.2 12.9 0.00 0.00 0.00 85 1012.4
20260510011312 17 178 3.2 12.9 0.00 0.00 0.00 85 1012.5
20260510011212 17 138 4.8 12.9 0.00 0.00 0.00 85 1012.5
20260510011113 17 168 4.8 12.9 0.00 0.00 0.00 85 1012.5
20260510011012 17 168 4.8 12.9 0.00 0.00 0.00 85 1012.4
20260510010913 17 181 3.2 12.9 0.00 0.00 0.00 85 1012.4
20260510010804 17 201 3.2 11.3 0.00 0.00 0.00 85 1012.3
20260510010704 17 157 3.2 11.3 0.00 0.00 0.00 85 1012.3
20260510010605 17 156 3.2 11.3 0.00 0.00 0.00 85 1012.3
20260510010504 17 190 3.2 11.3 0.00 0.00 0.00 85 1012.3
20260510010405 17 178 3.2 11.3 0.00 0.00 0.00 84 1012.2
20260510010305 17 178 3.2 11.3 0.00 0.00 0.00 84 1012.3
20260510010204 17 172 3.2 9.7 0.00 0.00 0.00 84 1012.2
20260510010104 17 165 3.2 9.7 0.00 0.00 0.00 84 1012.3
20260510010005 17 165 3.2 9.7 0.00 0.00 0.00 84 1012.3
20260510005905 17 167 3.2 9.7 0.00 0.00 0.00 84 1012.2
20260510005805 17 179 3.2 9.7 0.00 0.00 0.00 84 1012.2
20260510005704 17 179 3.2 9.7 0.00 0.00 0.00 84 1012.2
20260510005604 17 178 3.2 9.7 0.00 0.00 0.00 84 1012.1
20260510005505 17 178 3.2 9.7 0.00 0.00 0.00 84 1012.0
20260510005404 17 180 3.2 9.7 0.00 0.00 0.00 84 1012.0
20260510005306 17 156 3.2 9.7 0.00 0.00 0.00 84 1012.1
20260510005205 17 181 3.2 9.7 0.00 0.00 0.00 84 1012.1
20260510005104 17 171 3.2 9.7 0.00 0.00 0.00 84 1011.8
20260510005005 17 190 3.2 12.9 0.00 0.00 0.00 84 1012.0
20260510004904 17 177 3.2 12.9 0.00 0.00 0.00 84 1012.0
20260510004805 17 179 3.2 12.9 0.00 0.00 0.00 84 1011.8
20260510004705 17 164 3.2 12.9 0.00 0.00 0.00 83 1011.8
20260510004604 17 165 3.2 12.9 0.00 0.00 0.00 83 1011.8
20260510004505 17 163 3.2 12.9 0.00 0.00 0.00 83 1011.7
20260510004405 17 163 3.2 12.9 0.00 0.00 0.00 83 1011.8
20260510004305 17 163 3.2 12.9 0.00 0.00 0.00 83 1011.8
20260510004205 17 161 3.2 12.9 0.00 0.00 0.00 83 1011.8
20260510004104 17 160 3.2 12.9 0.00 0.00 0.00 83 1011.8
20260510004005 17 202 3.2 12.9 0.00 0.00 0.00 83 1011.8
20260510003905 17 148 3.2 8.0 0.00 0.00 0.00 83 1011.8
20260510003806 17 203 3.2 8.0 0.00 0.00 0.00 83 1011.7
20260510003705 17 213 3.2 8.0 0.00 0.00 0.00 83 1011.7
20260510003606 17 234 3.2 8.0 0.00 0.00 0.00 83 1011.8
20260510003500 17 196 3.2 8.0 0.00 0.00 0.00 83 1011.7
20260510003402 17 196 3.2 9.7 0.00 0.00 0.00 83 1011.7
20260510003300 17 198 3.2 9.7 0.00 0.00 0.00 82 1011.7
20260510003200 17 185 3.2 9.7 0.00 0.00 0.00 82 1011.7
20260510003101 17 184 3.2 9.7 0.00 0.00 0.00 82 1011.6
20260510003003 17 166 3.2 9.7 0.00 0.00 0.00 82 1011.6
20260510002901 17 169 3.2 9.7 0.00 0.00 0.00 82 1011.7
20260510002800 17 169 3.2 9.7 0.00 0.00 0.00 82 1011.5
20260510002700 17 179 3.2 9.7 0.00 0.00 0.00 82 1011.6
20260510002602 17 182 3.2 9.7 0.00 0.00 0.00 82 1011.6
20260510002501 17 182 3.2 9.7 0.00 0.00 0.00 82 1011.5
20260510002401 17 156 3.2 9.7 0.00 0.00 0.00 82 1011.5
20260510002201 18 186 3.2 8.0 0.00 0.00 0.00 81 1011.5
20260510002102 18 180 3.2 8.0 0.00 0.00 0.00 81 1011.5
20260510002001 18 208 3.2 8.0 0.00 0.00 0.00 81 1011.4
20260510001900 18 219 3.2 8.0 0.00 0.00 0.00 81 1011.5
20260510001802 18 169 3.2 8.0 0.00 0.00 0.00 81 1011.4
20260510001700 18 169 3.2 8.0 0.00 0.00 0.00 81 1011.4
20260510001601 18 169 3.2 8.0 0.00 0.00 0.00 81 1011.3
20260510001501 18 167 3.2 8.0 0.00 0.00 0.00 81 1011.4
20260510001402 18 167 3.2 8.0 0.00 0.00 0.00 81 1011.4
20260510001300 18 167 1.6 8.0 0.00 0.00 0.00 81 1011.4
20260510001201 18 167 1.6 8.0 0.00 0.00 0.00 81 1011.4
20260510001100 18 165 1.6 6.4 0.00 0.00 0.00 80 1011.5
20260510001001 18 165 1.6 6.4 0.00 0.00 0.00 80 1011.4
20260510000902 18 165 1.6 6.4 0.00 0.00 0.00 80 1011.4
20260510000800 18 179 1.6 6.4 0.00 0.00 0.00 80 1011.4
20260510000701 18 179 3.2 6.4 0.00 0.00 0.00 80 1011.3
20260510000602 18 179 3.2 6.4 0.00 0.00 0.00 80 1011.3
20260510000500 18 157 3.2 6.4 0.00 0.00 0.00 80 1011.3
20260510000359 18 159 3.2 6.4 0.00 0.00 0.00 80 1011.3
20260510000304 18 159 3.2 6.4 0.00 0.00 0.00 80 1011.3
20260510000155 18 158 3.2 8.0 0.00 0.00 0.00 80 1011.3
20260510000054 18 159 3.2 8.0 0.00 0.00 0.00 80 1011.3
20260509235956 18 158 3.2 8.0 0.00 0.00 0.00 80 1011.3
20260509235854 18 158 3.2 8.0 0.00 0.00 0.00 80 1011.3
20260509235753 18 158 3.2 8.0 0.00 0.00 0.00 80 1011.3
20260509235646 18 157 3.2 8.0 0.00 0.00 0.00 79 1011.3
20260509235547 18 157 3.2 8.0 0.00 0.00 0.00 79 1011.4
20260509235443 18 157 3.2 8.0 0.00 0.00 0.00 79 1011.3
20260509235342 18 157 3.2 8.0 0.00 0.00 0.00 79 1011.3
20260509235238 18 157 3.2 8.0 0.00 0.00 0.00 79 1011.3
20260509235137 18 161 3.2 6.4 0.00 0.00 0.00 79 1011.3
20260509235037 18 162 3.2 6.4 0.00 0.00 0.00 79 1011.4
20260509234937 18 162 3.2 8.0 0.00 0.00 0.00 79 1011.3